Wetterdaten: Montag, 03.08.2009
Datum Zeit Temp. Innen Temp. Aussen UV X Diff Temp. Feuchte Inne Feuchte Auss Sonnenschein Luftdruck Regen ab 0,1 Wind Sonnenschein Windben
03.08.2009 00:00 22,2 C 14,3 C 0,0 UV-I 0,0 C 61 % 86 % 0 % 1016,8 hPa 0,0 l/m 0,0 km/h (0 Bft) 0 min 0,0 km/h (0 Bft)
03.08.2009 00:02 22,1 C 14,3 C 0,0 UV-I 0,0 C 61 % 86 % 0 % 1016,8 hPa 0,0 l/m 0,0 km/h (0 Bft) 0 min 0,0 km/h (0 Bft)
03.08.2009 00:08 22,1 C 14,1 C 0,0 UV-I 0,0 C 61 % 86 % 0 % 1016,8 hPa 0,0 l/m 0,0 km/h (0 Bft) 0 min 0,0 km/h (0 Bft)
03.08.2009 00:10 22,1 C 14,1 C 0,0 UV-I 0,0 C 61 % 87 % 0 % 1016,8 hPa 0,0 l/m 0,0 km/h (0 Bft) 0 min 0,0 km/h (0 Bft)
03.08.2009 00:12 22,1 C 14,1 C 0,0 UV-I 0,0 C 61 % 87 % 0 % 1016,8 hPa 0,0 l/m 0,0 km/h (0 Bft) 0 min 0,0 km/h (0 Bft)
03.08.2009 00:14 22,1 C 14,0 C 0,0 UV-I 0,0 C 61 % 87 % 0 % 1016,8 hPa 0,0 l/m 0,0 km/h (0 Bft) 0 min 0,0 km/h (0 Bft)
03.08.2009 00:16 22,1 C 14,1 C 0,0 UV-I 0,0 C 61 % 87 % 0 % 1016,5 hPa 0,0 l/m 0,0 km/h (0 Bft) 0 min 0,0 km/h (0 Bft)
03.08.2009 00:18 22,1 C 14,0 C 0,0 UV-I 0,0 C 61 % 87 % 0 % 1016,5 hPa 0,0 l/m 0,0 km/h (0 Bft) 0 min 0,0 km/h (0 Bft)
03.08.2009 00:20 22,0 C 14,0 C 0,0 UV-I 0,0 C 61 % 87 % 0 % 1016,5 hPa 0,0 l/m 0,0 km/h (0 Bft) 0 min 0,0 km/h (0 Bft)
03.08.2009 00:22 22,0 C 13,9 C 0,0 UV-I 0,0 C 61 % 87 % 0 % 1016,5 hPa 0,0 l/m 0,0 km/h (0 Bft) 0 min 0,0 km/h (0 Bft)
03.08.2009 00:24 22,0 C 13,9 C 0,0 UV-I 0,0 C 61 % 87 % 0 % 1016,5 hPa 0,0 l/m 0,0 km/h (0 Bft) 0 min 0,0 km/h (0 Bft)
03.08.2009 00:26 22,0 C 13,9 C 0,0 UV-I 0,0 C 61 % 87 % 0 % 1016,5 hPa 0,0 l/m 0,0 km/h (0 Bft) 0 min 0,0 km/h (0 Bft)
03.08.2009 00:28 22,0 C 13,8 C 0,0 UV-I 0,0 C 61 % 87 % 0 % 1016,5 hPa 0,0 l/m 0,0 km/h (0 Bft) 0 min 0,0 km/h (0 Bft)
03.08.2009 00:30 22,0 C 13,9 C 0,0 UV-I 0,0 C 61 % 87 % 0 % 1016,5 hPa 0,0 l/m 0,0 km/h (0 Bft) 0 min 0,0 km/h (0 Bft)
03.08.2009 00:34 22,0 C 13,8 C 0,0 UV-I 0,0 C 61 % 87 % 0 % 1016,5 hPa 0,0 l/m 0,0 km/h (0 Bft) 0 min 0,0 km/h (0 Bft)
03.08.2009 00:36 22,0 C 13,7 C 0,0 UV-I 0,0 C 61 % 87 % 0 % 1016,9 hPa 0,0 l/m 0,0 km/h (0 Bft) 0 min 0,0 km/h (0 Bft)
03.08.2009 00:38 22,0 C 13,7 C 0,0 UV-I 0,0 C 61 % 87 % 0 % 1016,9 hPa 0,0 l/m 0,0 km/h (0 Bft) 0 min 0,0 km/h (0 Bft)
03.08.2009 00:40 22,0 C 13,6 C 0,0 UV-I 0,0 C 61 % 88 % 0 % 1016,9 hPa 0,0 l/m 0,0 km/h (0 Bft) 0 min 0,0 km/h (0 Bft)
03.08.2009 00:42 22,0 C 13,6 C 0,0 UV-I 0,0 C 61 % 88 % 0 % 1016,9 hPa 0,0 l/m 0,0 km/h (0 Bft) 0 min 0,0 km/h (0 Bft)
03.08.2009 00:48 22,0 C 13,6 C 0,0 UV-I 0,0 C 61 % 88 % 0 % 1016,9 hPa 0,0 l/m 0,0 km/h (0 Bft) 0 min 0,0 km/h (0 Bft)
03.08.2009 00:50 22,0 C 13,5 C 0,0 UV-I 0,0 C 61 % 88 % 0 % 1016,9 hPa 0,0 l/m 0,0 km/h (0 Bft) 0 min 0,0 km/h (0 Bft)
03.08.2009 00:52 22,0 C 13,5 C 0,0 UV-I 0,0 C 61 % 88 % 0 % 1016,9 hPa 0,0 l/m 0,0 km/h (0 Bft) 0 min 0,0 km/h (0 Bft)
03.08.2009 00:54 21,9 C 13,4 C 0,0 UV-I 0,0 C 61 % 88 % 0 % 1016,9 hPa 0,0 l/m 0,0 km/h (0 Bft) 0 min 0,0 km/h (0 Bft)
03.08.2009 00:56 22,0 C 13,5 C 0,0 UV-I 0,0 C 61 % 88 % 0 % 1016,8 hPa 0,0 l/m 0,0 km/h (0 Bft) 0 min 0,0 km/h (0 Bft)
03.08.2009 01:02 21,9 C 13,3 C 0,0 UV-I 0,0 C 61 % 88 % 0 % 1016,8 hPa 0,0 l/m 0,0 km/h (0 Bft) 0 min 0,0 km/h (0 Bft)
03.08.2009 01:04 21,9 C 13,3 C 0,0 UV-I 0,0 C 61 % 88 % 0 % 1016,8 hPa 0,0 l/m 0,0 km/h (0 Bft) 0 min 0,0 km/h (0 Bft)
03.08.2009 01:06 21,9 C 13,3 C 0,0 UV-I 0,0 C 61 % 88 % 0 % 1016,8 hPa 0,0 l/m 0,0 km/h (0 Bft) 0 min 0,0 km/h (0 Bft)
03.08.2009 01:10 21,9 C 13,2 C 0,0 UV-I 0,0 C 61 % 88 % 0 % 1016,8 hPa 0,0 l/m 0,0 km/h (0 Bft) 0 min 0,0 km/h (0 Bft)
03.08.2009 01:12 21,9 C 13,2 C 0,0 UV-I 0,0 C 61 % 88 % 0 % 1016,8 hPa 0,0 l/m 0,0 km/h (0 Bft) 0 min 0,0 km/h (0 Bft)
03.08.2009 01:14 21,9 C 13,2 C 0,0 UV-I 0,0 C 61 % 88 % 0 % 1016,8 hPa 0,0 l/m 0,0 km/h (0 Bft) 0 min 0,0 km/h (0 Bft)
03.08.2009 01:18 21,8 C 13,2 C 0,0 UV-I 0,0 C 61 % 88 % 0 % 1016,4 hPa 0,0 l/m 0,0 km/h (0 Bft) 0 min 0,0 km/h (0 Bft)
03.08.2009 01:20 21,8 C 13,1 C 0,0 UV-I 0,0 C 61 % 88 % 0 % 1016,4 hPa 0,0 l/m 0,0 km/h (0 Bft) 0 min 0,0 km/h (0 Bft)
03.08.2009 01:22 21,8 C 13,1 C 0,0 UV-I 0,0 C 61 % 88 % 0 % 1016,4 hPa 0,0 l/m 0,0 km/h (0 Bft) 0 min 0,0 km/h (0 Bft)
03.08.2009 01:24 21,8 C 13,0 C 0,0 UV-I 0,0 C 61 % 88 % 0 % 1016,4 hPa 0,0 l/m 0,0 km/h (0 Bft) 0 min 0,0 km/h (0 Bft)
03.08.2009 01:26 21,8 C 13,0 C 0,0 UV-I 0,0 C 61 % 88 % 0 % 1016,4 hPa 0,0 l/m 0,0 km/h (0 Bft) 0 min 0,0 km/h (0 Bft)
03.08.2009 01:30 21,8 C 13,1 C 0,0 UV-I 0,0 C 61 % 89 % 0 % 1016,4 hPa 0,0 l/m 0,0 km/h (0 Bft) 0 min 0,0 km/h (0 Bft)
03.08.2009 01:36 21,8 C 12,9 C 0,0 UV-I 0,0 C 61 % 89 % 0 % 1016,6 hPa 0,0 l/m 0,0 km/h (0 Bft) 0 min 0,0 km/h (0 Bft)
03.08.2009 01:38 21,8 C 12,9 C 0,0 UV-I 0,0 C 61 % 89 % 0 % 1016,6 hPa 0,0 l/m 0,0 km/h (0 Bft) 0 min 0,0 km/h (0 Bft)
03.08.2009 01:40 21,8 C 12,9 C 0,0 UV-I 0,0 C 61 % 89 % 0 % 1016,6 hPa 0,0 l/m 0,0 km/h (0 Bft) 0 min 0,0 km/h (0 Bft)
03.08.2009 01:42 21,8 C 12,8 C 0,0 UV-I 0,0 C 61 % 89 % 0 % 1016,6 hPa 0,0 l/m 0,0 km/h (0 Bft) 0 min 0,0 km/h (0 Bft)
03.08.2009 01:44 21,8 C 12,8 C 0,0 UV-I 0,0 C 61 % 89 % 0 % 1016,6 hPa 0,0 l/m 0,0 km/h (0 Bft) 0 min 0,0 km/h (0 Bft)
03.08.2009 01:48 21,8 C 12,9 C 0,0 UV-I 0,0 C 61 % 89 % 0 % 1016,6 hPa 0,0 l/m 0,0 km/h (0 Bft) 0 min 0,0 km/h (0 Bft)
03.08.2009 01:50 21,8 C 12,8 C 0,0 UV-I 0,0 C 61 % 89 % 0 % 1016,6 hPa 0,0 l/m 0,0 km/h (0 Bft) 0 min 0,0 km/h (0 Bft)
03.08.2009 01:52 21,7 C 12,8 C 0,0 UV-I 0,0 C 61 % 89 % 0 % 1016,6 hPa 0,0 l/m 0,0 km/h (0 Bft) 0 min 0,0 km/h (0 Bft)
03.08.2009 01:56 21,8 C 12,7 C 0,0 UV-I 0,0 C 61 % 89 % 0 % 1016,5 hPa 0,0 l/m 0,0 km/h (0 Bft) 0 min 0,0 km/h (0 Bft)
03.08.2009 01:58 21,7 C 12,7 C 0,0 UV-I 0,0 C 61 % 89 % 0 % 1016,5 hPa 0,0 l/m 0,0 km/h (0 Bft) 0 min 0,0 km/h (0 Bft)
03.08.2009 02:02 21,7 C 12,7 C 0,0 UV-I 0,0 C 61 % 90 % 0 % 1016,5 hPa 0,0 l/m 0,0 km/h (0 Bft) 0 min 0,0 km/h (0 Bft)
03.08.2009 02:04 21,7 C 12,7 C 0,0 UV-I 0,0 C 61 % 90 % 0 % 1016,5 hPa 0,0 l/m 0,0 km/h (0 Bft) 0 min 0,0 km/h (0 Bft)
03.08.2009 02:06 21,7 C 12,6 C 0,0 UV-I 0,0 C 61 % 90 % 0 % 1016,5 hPa 0,0 l/m 0,0 km/h (0 Bft) 0 min 0,0 km/h (0 Bft)
03.08.2009 02:08 21,7 C 12,6 C 0,0 UV-I 0,0 C 61 % 90 % 0 % 1016,5 hPa 0,0 l/m 0,0 km/h (0 Bft) 0 min 0,0 km/h (0 Bft)
03.08.2009 02:10 21,7 C 12,7 C 0,0 UV-I 0,0 C 61 % 90 % 0 % 1016,5 hPa 0,0 l/m 0,0 km/h (0 Bft) 0 min 0,0 km/h (0 Bft)
03.08.2009 02:12 21,7 C 12,7 C 0,0 UV-I 0,0 C 61 % 90 % 0 % 1016,5 hPa 0,0 l/m 0,0 km/h (0 Bft) 0 min 0,0 km/h (0 Bft)
03.08.2009 02:14 21,7 C 12,6 C 0,0 UV-I 0,0 C 61 % 90 % 0 % 1016,5 hPa 0,0 l/m 0,0 km/h (0 Bft) 0 min 0,0 km/h (0 Bft)
03.08.2009 02:16 21,7 C 12,5 C 0,0 UV-I 0,0 C 61 % 90 % 0 % 1016,5 hPa 0,0 l/m 0,0 km/h (0 Bft) 0 min 0,0 km/h (0 Bft)
03.08.2009 02:18 21,6 C 12,5 C 0,0 UV-I 0,0 C 61 % 90 % 0 % 1016,5 hPa 0,0 l/m 0,0 km/h (0 Bft) 0 min 0,0 km/h (0 Bft)
03.08.2009 02:20 21,7 C 12,5 C 0,0 UV-I 0,0 C 61 % 90 % 0 % 1016,5 hPa 0,0 l/m 0,0 km/h (0 Bft) 0 min 0,0 km/h (0 Bft)
03.08.2009 02:24 21,6 C 12,5 C 0,0 UV-I 0,0 C 61 % 90 % 0 % 1016,5 hPa 0,0 l/m 0,0 km/h (0 Bft) 0 min 0,0 km/h (0 Bft)
03.08.2009 02:26 21,6 C 12,4 C 0,0 UV-I 0,0 C 61 % 90 % 0 % 1016,5 hPa 0,0 l/m 0,0 km/h (0 Bft) 0 min 0,0 km/h (0 Bft)
03.08.2009 02:28 21,6 C 12,4 C 0,0 UV-I 0,0 C 61 % 90 % 0 % 1016,5 hPa 0,0 l/m 0,0 km/h (0 Bft) 0 min 0,0 km/h (0 Bft)
03.08.2009 02:30 21,6 C 12,5 C 0,0 UV-I 0,0 C 61 % 90 % 0 % 1016,5 hPa 0,0 l/m 0,0 km/h (0 Bft) 0 min 0,0 km/h (0 Bft)
03.08.2009 02:32 21,6 C 12,5 C 0,0 UV-I 0,0 C 61 % 90 % 0 % 1016,5 hPa 0,0 l/m 0,0 km/h (0 Bft) 0 min 0,0 km/h (0 Bft)
03.08.2009 02:34 21,6 C 12,4 C 0,0 UV-I 0,0 C 61 % 90 % 0 % 1016,5 hPa 0,0 l/m 0,0 km/h (0 Bft) 0 min 0,0 km/h (0 Bft)
03.08.2009 02:36 21,6 C 12,3 C 0,0 UV-I 0,0 C 61 % 90 % 0 % 1016,4 hPa 0,0 l/m 0,0 km/h (0 Bft) 0 min 0,0 km/h (0 Bft)
03.08.2009 02:38 21,6 C 12,4 C 0,0 UV-I 0,0 C 61 % 90 % 0 % 1016,4 hPa 0,0 l/m 0,0 km/h (0 Bft) 0 min 0,0 km/h (0 Bft)
03.08.2009 02:44 21,6 C 12,3 C 0,0 UV-I 0,0 C 61 % 90 % 0 % 1016,4 hPa 0,0 l/m 0,0 km/h (0 Bft) 0 min 0,0 km/h (0 Bft)
03.08.2009 02:46 21,6 C 12,3 C 0,0 UV-I 0,0 C 61 % 90 % 0 % 1016,4 hPa 0,0 l/m 0,0 km/h (0 Bft) 0 min 0,0 km/h (0 Bft)
03.08.2009 02:48 21,6 C 12,3 C 0,0 UV-I 0,0 C 61 % 91 % 0 % 1016,4 hPa 0,0 l/m 0,0 km/h (0 Bft) 0 min 0,0 km/h (0 Bft)
03.08.2009 02:52 21,6 C 12,2 C 0,0 UV-I 0,0 C 61 % 91 % 0 % 1016,4 hPa 0,0 l/m 0,0 km/h (0 Bft) 0 min 0,0 km/h (0 Bft)
03.08.2009 02:56 21,6 C 12,3 C 0,0 UV-I 0,0 C 61 % 91 % 0 % 1016,2 hPa 0,0 l/m 0,0 km/h (0 Bft) 0 min 0,0 km/h (0 Bft)
03.08.2009 03:00 21,6 C 12,2 C 0,0 UV-I 0,0 C 61 % 91 % 0 % 1016,2 hPa 0,0 l/m 0,0 km/h (0 Bft) 0 min 0,0 km/h (0 Bft)
03.08.2009 03:04 21,6 C 12,1 C 0,0 UV-I 0,0 C 61 % 91 % 0 % 1016,2 hPa 0,0 l/m 0,0 km/h (0 Bft) 0 min 0,0 km/h (0 Bft)
03.08.2009 03:06 21,6 C 12,1 C 0,0 UV-I 0,0 C 61 % 91 % 0 % 1016,2 hPa 0,0 l/m 0,0 km/h (0 Bft) 0 min 0,0 km/h (0 Bft)
03.08.2009 03:10 21,6 C 12,0 C 0,0 UV-I 0,0 C 61 % 91 % 0 % 1016,2 hPa 0,0 l/m 0,0 km/h (0 Bft) 0 min 0,0 km/h (0 Bft)
03.08.2009 03:12 21,6 C 12,0 C 0,0 UV-I 0,0 C 61 % 91 % 0 % 1016,2 hPa 0,0 l/m 0,0 km/h (0 Bft) 0 min 0,0 km/h (0 Bft)
03.08.2009 03:14 21,5 C 12,0 C 0,0 UV-I 0,0 C 61 % 91 % 0 % 1016,2 hPa 0,0 l/m 0,0 km/h (0 Bft) 0 min 0,0 km/h (0 Bft)
03.08.2009 03:18 21,5 C 12,0 C 0,0 UV-I 0,0 C 60 % 91 % 0 % 1016,6 hPa 0,0 l/m 0,0 km/h (0 Bft) 0 min 0,0 km/h (0 Bft)
03.08.2009 03:20 21,5 C 12,0 C 0,0 UV-I 0,0 C 60 % 91 % 0 % 1016,6 hPa 0,0 l/m 0,0 km/h (0 Bft) 0 min 0,0 km/h (0 Bft)
03.08.2009 03:22 21,5 C 12,0 C 0,0 UV-I 0,0 C 60 % 91 % 0 % 1016,6 hPa 0,0 l/m 0,0 km/h (0 Bft) 0 min 0,0 km/h (0 Bft)
03.08.2009 03:28 21,5 C 11,9 C 0,0 UV-I 0,0 C 60 % 91 % 0 % 1016,6 hPa 0,0 l/m 0,0 km/h (0 Bft) 0 min 0,0 km/h (0 Bft)
03.08.2009 03:30 21,5 C 11,9 C 0,0 UV-I 0,0 C 60 % 91 % 0 % 1016,6 hPa 0,0 l/m 0,0 km/h (0 Bft) 0 min 0,0 km/h (0 Bft)
03.08.2009 03:38 21,4 C 11,9 C 0,0 UV-I 0,0 C 60 % 91 % 0 % 1016,8 hPa 0,0 l/m 0,0 km/h (0 Bft) 0 min 0,0 km/h (0 Bft)
03.08.2009 03:42 21,4 C 11,9 C 0,0 UV-I 0,0 C 60 % 91 % 0 % 1016,8 hPa 0,0 l/m 0,0 km/h (0 Bft) 0 min 0,0 km/h (0 Bft)
03.08.2009 03:46 21,4 C 11,7 C 0,0 UV-I 0,0 C 60 % 91 % 0 % 1016,8 hPa 0,0 l/m 0,0 km/h (0 Bft) 0 min 0,0 km/h (0 Bft)
03.08.2009 03:48 21,4 C 11,7 C 0,0 UV-I 0,0 C 60 % 91 % 0 % 1016,8 hPa 0,0 l/m 0,0 km/h (0 Bft) 0 min 0,0 km/h (0 Bft)
03.08.2009 03:50 21,4 C 11,7 C 0,0 UV-I 0,0 C 60 % 91 % 0 % 1016,8 hPa 0,0 l/m 0,0 km/h (0 Bft) 0 min 0,0 km/h (0 Bft)
03.08.2009 03:54 21,4 C 11,7 C 0,0 UV-I 0,0 C 60 % 91 % 0 % 1016,8 hPa 0,0 l/m 0,0 km/h (0 Bft) 0 min 0,0 km/h (0 Bft)
03.08.2009 03:58 21,4 C 11,7 C 0,0 UV-I 0,0 C 60 % 91 % 0 % 1016,9 hPa 0,0 l/m 0,0 km/h (0 Bft) 0 min 0,0 km/h (0 Bft)
03.08.2009 04:00 21,4 C 11,7 C 0,0 UV-I 0,0 C 60 % 91 % 0 % 1016,9 hPa 0,0 l/m 0,0 km/h (0 Bft) 0 min 0,0 km/h (0 Bft)
03.08.2009 04:02 21,4 C 11,7 C 0,0 UV-I 0,0 C 60 % 91 % 0 % 1016,9 hPa 0,0 l/m 0,0 km/h (0 Bft) 0 min 0,0 km/h (0 Bft)
03.08.2009 04:04 21,4 C 11,7 C 0,0 UV-I 0,0 C 60 % 91 % 0 % 1016,9 hPa 0,0 l/m 0,0 km/h (0 Bft) 0 min 0,0 km/h (0 Bft)
03.08.2009 04:06 21,4 C 11,8 C 0,0 UV-I 0,0 C 60 % 91 % 0 % 1016,9 hPa 0,0 l/m 0,0 km/h (0 Bft) 0 min 0,0 km/h (0 Bft)
03.08.2009 04:08 21,4 C 11,8 C 0,0 UV-I 0,0 C 60 % 92 % 0 % 1016,9 hPa 0,0 l/m 0,0 km/h (0 Bft) 0 min 0,0 km/h (0 Bft)
03.08.2009 04:14 21,4 C 11,9 C 0,0 UV-I 0,0 C 61 % 92 % 0 % 1016,9 hPa 0,0 l/m 0,0 km/h (0 Bft) 0 min 0,0 km/h (0 Bft)
03.08.2009 04:16 21,4 C 11,9 C 0,0 UV-I 0,0 C 61 % 92 % 0 % 1016,6 hPa 0,0 l/m 0,0 km/h (0 Bft) 0 min 0,0 km/h (0 Bft)
03.08.2009 04:18 21,4 C 12,0 C 0,0 UV-I 0,0 C 61 % 92 % 0 % 1016,6 hPa 0,0 l/m 0,0 km/h (0 Bft) 0 min 0,0 km/h (0 Bft)
03.08.2009 04:20 21,4 C 12,0 C 0,0 UV-I 0,0 C 61 % 92 % 0 % 1016,6 hPa 0,0 l/m 0,0 km/h (0 Bft) 0 min 0,0 km/h (0 Bft)
03.08.2009 04:22 21,2 C 12,0 C 0,0 UV-I 0,0 C 61 % 92 % 0 % 1016,6 hPa 0,0 l/m 0,0 km/h (0 Bft) 0 min 0,0 km/h (0 Bft)
03.08.2009 04:24 21,4 C 12,0 C 0,0 UV-I 0,0 C 61 % 92 % 0 % 1016,6 hPa 0,0 l/m 0,0 km/h (0 Bft) 0 min 0,0 km/h (0 Bft)
03.08.2009 04:28 21,4 C 12,0 C 0,0 UV-I 0,0 C 61 % 92 % 0 % 1016,6 hPa 0,0 l/m 0,0 km/h (0 Bft) 0 min 0,0 km/h (0 Bft)
03.08.2009 04:30 21,4 C 11,9 C 0,0 UV-I 0,0 C 61 % 92 % 0 % 1016,6 hPa 0,0 l/m 0,0 km/h (0 Bft) 0 min 0,0 km/h (0 Bft)
03.08.2009 04:32 21,2 C 12,0 C 0,0 UV-I 0,0 C 61 % 92 % 0 % 1016,6 hPa 0,0 l/m 0,0 km/h (0 Bft) 0 min 0,0 km/h (0 Bft)
03.08.2009 04:34 21,4 C 12,0 C 0,0 UV-I 0,0 C 61 % 92 % 0 % 1016,6 hPa 0,0 l/m 0,0 km/h (0 Bft) 0 min 0,0 km/h (0 Bft)
03.08.2009 04:38 21,2 C 12,0 C 0,0 UV-I 0,0 C 61 % 92 % 0 % 1016,9 hPa 0,0 l/m 0,0 km/h (0 Bft) 0 min 0,0 km/h (0 Bft)
03.08.2009 04:40 21,4 C 12,0 C 0,0 UV-I 0,0 C 61 % 92 % 0 % 1016,9 hPa 0,0 l/m 0,0 km/h (0 Bft) 0 min 0,0 km/h (0 Bft)
03.08.2009 04:42 21,2 C 12,0 C 0,0 UV-I 0,0 C 61 % 92 % 0 % 1016,9 hPa 0,0 l/m 0,0 km/h (0 Bft) 0 min 0,0 km/h (0 Bft)
03.08.2009 04:46 21,2 C 12,0 C 0,0 UV-I 0,0 C 61 % 92 % 0 % 1016,9 hPa 0,0 l/m 0,0 km/h (0 Bft) 0 min 0,0 km/h (0 Bft)
03.08.2009 04:48 21,2 C 12,0 C 0,0 UV-I 0,0 C 61 % 92 % 0 % 1016,9 hPa 0,0 l/m 0,0 km/h (0 Bft) 0 min 0,0 km/h (0 Bft)
03.08.2009 04:50 21,2 C 12,1 C 0,0 UV-I 0,0 C 61 % 92 % 0 % 1016,9 hPa 0,0 l/m 0,0 km/h (0 Bft) 0 min 0,0 km/h (0 Bft)
03.08.2009 04:56 21,4 C 12,0 C 0,0 UV-I 0,0 C 60 % 92 % 0 % 1016,6 hPa 0,0 l/m 0,0 km/h (0 Bft) 0 min 0,0 km/h (0 Bft)
03.08.2009 04:58 21,2 C 12,0 C 0,0 UV-I 0,0 C 61 % 92 % 0 % 1016,6 hPa 0,0 l/m 0,0 km/h (0 Bft) 0 min 0,0 km/h (0 Bft)
03.08.2009 05:00 21,4 C 12,1 C 0,0 UV-I 0,0 C 61 % 92 % 0 % 1016,6 hPa 0,0 l/m 0,0 km/h (0 Bft) 0 min 0,0 km/h (0 Bft)
03.08.2009 05:02 21,2 C 12,1 C 0,0 UV-I 0,0 C 61 % 92 % 0 % 1016,6 hPa 0,0 l/m 0,0 km/h (0 Bft) 0 min 0,0 km/h (0 Bft)
03.08.2009 05:04 21,2 C 12,1 C 0,0 UV-I 0,0 C 61 % 92 % 0 % 1016,6 hPa 0,0 l/m 0,0 km/h (0 Bft) 0 min 0,0 km/h (0 Bft)
03.08.2009 05:09 21,2 C 12,1 C 0,0 UV-I 0,0 C 61 % 92 % 0 % 1016,6 hPa 0,0 l/m 0,0 km/h (0 Bft) 0 min 0,0 km/h (0 Bft)
03.08.2009 05:10 21,2 C 12,1 C 0,0 UV-I 0,0 C 61 % 92 % 0 % 1016,6 hPa 0,0 l/m 0,0 km/h (0 Bft) 0 min 0,0 km/h (0 Bft)
03.08.2009 05:18 21,2 C 12,3 C 0,0 UV-I 0,0 C 61 % 93 % 0 % 1016,7 hPa 0,0 l/m 0,0 km/h (0 Bft) 0 min 0,0 km/h (0 Bft)
03.08.2009 05:20 21,2 C 12,2 C 0,0 UV-I 0,0 C 61 % 92 % 0 % 1016,7 hPa 0,0 l/m 0,0 km/h (0 Bft) 0 min 0,0 km/h (0 Bft)
03.08.2009 05:22 21,2 C 12,3 C 0,0 UV-I 0,0 C 61 % 93 % 0 % 1016,7 hPa 0,0 l/m 0,0 km/h (0 Bft) 0 min 0,0 km/h (0 Bft)
03.08.2009 05:24 21,2 C 12,3 C 0,0 UV-I 0,0 C 61 % 93 % 0 % 1016,7 hPa 0,0 l/m 0,0 km/h (0 Bft) 0 min 0,0 km/h (0 Bft)
03.08.2009 05:26 21,2 C 12,3 C 0,0 UV-I 0,0 C 61 % 93 % 0 % 1016,7 hPa 0,0 l/m 0,0 km/h (0 Bft) 0 min 0,0 km/h (0 Bft)
03.08.2009 05:28 21,2 C 12,3 C 0,0 UV-I 0,0 C 61 % 93 % 0 % 1016,7 hPa 0,0 l/m 0,0 km/h (0 Bft) 0 min 0,0 km/h (0 Bft)
03.08.2009 05:30 21,2 C 12,4 C 0,0 UV-I 0,0 C 61 % 93 % 0 % 1016,7 hPa 0,0 l/m 0,0 km/h (0 Bft) 0 min 0,0 km/h (0 Bft)
03.08.2009 05:32 21,2 C 12,4 C 0,0 UV-I 0,0 C 61 % 93 % 0 % 1016,7 hPa 0,0 l/m 0,0 km/h (0 Bft) 0 min 0,0 km/h (0 Bft)
03.08.2009 05:34 21,2 C 12,4 C 0,0 UV-I 0,0 C 61 % 93 % 0 % 1016,7 hPa 0,0 l/m 0,0 km/h (0 Bft) 0 min 0,0 km/h (0 Bft)
03.08.2009 05:36 21,2 C 12,5 C 0,0 UV-I 0,0 C 61 % 93 % 0 % 1016,4 hPa 0,0 l/m 0,0 km/h (0 Bft) 0 min 0,0 km/h (0 Bft)
03.08.2009 05:38 21,2 C 12,4 C 0,0 UV-I 0,0 C 61 % 93 % 0 % 1016,4 hPa 0,0 l/m 0,0 km/h (0 Bft) 0 min 0,0 km/h (0 Bft)
03.08.2009 05:40 21,2 C 12,4 C 0,0 UV-I 0,0 C 61 % 93 % 0 % 1016,4 hPa 0,0 l/m 0,0 km/h (0 Bft) 0 min 0,0 km/h (0 Bft)
03.08.2009 05:42 21,2 C 12,4 C 0,0 UV-I 0,0 C 61 % 93 % 0 % 1016,4 hPa 0,0 l/m 0,0 km/h (0 Bft) 0 min 0,0 km/h (0 Bft)
03.08.2009 05:44 21,2 C 12,4 C 0,0 UV-I 0,0 C 61 % 93 % 0 % 1016,4 hPa 0,0 l/m 0,0 km/h (0 Bft) 0 min 0,0 km/h (0 Bft)
03.08.2009 05:46 21,2 C 12,4 C 0,0 UV-I 0,0 C 61 % 93 % 0 % 1016,4 hPa 0,0 l/m 0,0 km/h (0 Bft) 0 min 0,0 km/h (0 Bft)
03.08.2009 05:48 21,2 C 12,4 C 0,0 UV-I 0,0 C 61 % 93 % 0 % 1016,4 hPa 0,0 l/m 0,0 km/h (0 Bft) 0 min 0,0 km/h (0 Bft)
03.08.2009 05:50 21,2 C 12,4 C 0,0 UV-I 0,0 C 61 % 93 % 0 % 1016,4 hPa 0,0 l/m 0,0 km/h (0 Bft) 0 min 0,0 km/h (0 Bft)
03.08.2009 05:52 21,2 C 12,4 C 0,0 UV-I 0,0 C 61 % 93 % 0 % 1016,4 hPa 0,0 l/m 0,0 km/h (0 Bft) 0 min 0,0 km/h (0 Bft)
03.08.2009 05:54 21,2 C 12,4 C 0,0 UV-I 0,0 C 61 % 93 % 0 % 1016,4 hPa 0,0 l/m 0,0 km/h (0 Bft) 0 min 0,0 km/h (0 Bft)
03.08.2009 05:56 21,2 C 12,4 C 0,0 UV-I 0,0 C 61 % 93 % 0 % 1016,7 hPa 0,0 l/m 0,0 km/h (0 Bft) 0 min 0,0 km/h (0 Bft)
03.08.2009 05:58 21,2 C 12,5 C 0,0 UV-I 0,0 C 61 % 93 % 0 % 1016,7 hPa 0,0 l/m 0,0 km/h (0 Bft) 0 min 0,0 km/h (0 Bft)
03.08.2009 06:00 21,2 C 12,5 C 0,0 UV-I 0,0 C 61 % 93 % 0 % 1016,7 hPa 0,0 l/m 0,0 km/h (0 Bft) 0 min 0,0 km/h (0 Bft)
03.08.2009 06:02 21,2 C 12,5 C 0,0 UV-I 0,0 C 61 % 93 % 0 % 1016,7 hPa 0,0 l/m 0,0 km/h (0 Bft) 0 min 0,0 km/h (0 Bft)
03.08.2009 06:04 21,2 C 12,5 C 0,0 UV-I 0,0 C 61 % 93 % 0 % 1016,7 hPa 0,0 l/m 0,0 km/h (0 Bft) 0 min 0,0 km/h (0 Bft)
03.08.2009 06:06 21,2 C 12,5 C 0,0 UV-I 0,0 C 61 % 93 % 0 % 1016,7 hPa 0,0 l/m 0,0 km/h (0 Bft) 0 min 0,0 km/h (0 Bft)
03.08.2009 06:08 21,2 C 12,4 C 0,0 UV-I 0,0 C 61 % 93 % 0 % 1016,7 hPa 0,0 l/m 0,0 km/h (0 Bft) 0 min 0,0 km/h (0 Bft)
03.08.2009 06:10 21,2 C 12,3 C 0,0 UV-I 0,0 C 61 % 93 % 0 % 1016,7 hPa 0,0 l/m 0,0 km/h (0 Bft) 0 min 0,0 km/h (0 Bft)
03.08.2009 06:12 21,2 C 12,3 C 0,0 UV-I 0,0 C 61 % 93 % 0 % 1016,7 hPa 0,0 l/m 0,0 km/h (0 Bft) 0 min 0,0 km/h (0 Bft)
03.08.2009 06:14 21,2 C 12,3 C 0,0 UV-I 0,0 C 61 % 93 % 0 % 1016,7 hPa 0,0 l/m 0,0 km/h (0 Bft) 0 min 0,0 km/h (0 Bft)
03.08.2009 06:16 21,2 C 12,3 C 0,0 UV-I 0,0 C 61 % 93 % 0 % 1016,6 hPa 0,0 l/m 0,0 km/h (0 Bft) 0 min 0,0 km/h (0 Bft)
03.08.2009 06:18 21,3 C 12,3 C 0,0 UV-I 0,0 C 61 % 93 % 0 % 1016,6 hPa 0,0 l/m 0,0 km/h (0 Bft) 0 min 0,0 km/h (0 Bft)
03.08.2009 06:20 21,2 C 12,3 C 0,0 UV-I 0,0 C 61 % 93 % 0 % 1016,6 hPa 0,0 l/m 0,0 km/h (0 Bft) 0 min 0,0 km/h (0 Bft)
03.08.2009 06:22 21,3 C 12,3 C 0,1 UV-I 0,0 C 60 % 93 % 0 % 1016,6 hPa 0,0 l/m 0,0 km/h (0 Bft) 0 min 0,0 km/h (0 Bft)
03.08.2009 06:24 21,3 C 12,2 C 0,1 UV-I 0,0 C 60 % 92 % 0 % 1016,6 hPa 0,0 l/m 0,0 km/h (0 Bft) 0 min 0,0 km/h (0 Bft)
03.08.2009 06:26 21,3 C 12,2 C 0,1 UV-I 0,0 C 60 % 92 % 0 % 1016,6 hPa 0,0 l/m 0,0 km/h (0 Bft) 0 min 0,0 km/h (0 Bft)
03.08.2009 06:28 21,3 C 12,3 C 0,1 UV-I 0,0 C 60 % 93 % 0 % 1016,6 hPa 0,0 l/m 0,0 km/h (0 Bft) 0 min 0,0 km/h (0 Bft)
03.08.2009 06:30 21,2 C 12,3 C 0,1 UV-I 0,0 C 61 % 93 % 0 % 1016,6 hPa 0,0 l/m 0,0 km/h (0 Bft) 0 min 0,0 km/h (0 Bft)
03.08.2009 06:32 21,3 C 12,3 C 0,1 UV-I 0,0 C 61 % 93 % 0 % 1016,6 hPa 0,0 l/m 0,0 km/h (0 Bft) 0 min 0,0 km/h (0 Bft)
03.08.2009 06:34 21,3 C 12,3 C 0,1 UV-I 0,0 C 60 % 93 % 0 % 1016,6 hPa 0,0 l/m 0,0 km/h (0 Bft) 0 min 0,0 km/h (0 Bft)
03.08.2009 06:36 21,2 C 12,3 C 0,1 UV-I 0,0 C 60 % 93 % 0 % 1016,8 hPa 0,0 l/m 0,0 km/h (0 Bft) 0 min 0,0 km/h (0 Bft)
03.08.2009 06:38 21,2 C 12,1 C 0,1 UV-I 0,0 C 60 % 92 % 0 % 1016,8 hPa 0,0 l/m 0,0 km/h (0 Bft) 0 min 0,0 km/h (0 Bft)
03.08.2009 06:40 21,2 C 12,1 C 0,1 UV-I 0,0 C 60 % 92 % 0 % 1016,8 hPa 0,0 l/m 0,0 km/h (0 Bft) 0 min 0,0 km/h (0 Bft)
03.08.2009 06:42 21,2 C 12,1 C 0,2 UV-I 0,0 C 60 % 92 % 0 % 1016,8 hPa 0,0 l/m 0,0 km/h (0 Bft) 0 min 0,0 km/h (0 Bft)
03.08.2009 06:44 21,2 C 12,1 C 0,2 UV-I 0,0 C 60 % 92 % 0 % 1016,8 hPa 0,0 l/m 0,0 km/h (0 Bft) 0 min 0,0 km/h (0 Bft)
03.08.2009 06:46 21,2 C 12,1 C 0,2 UV-I 0,0 C 60 % 92 % 0 % 1016,8 hPa 0,0 l/m 0,0 km/h (0 Bft) 0 min 0,0 km/h (0 Bft)
03.08.2009 06:48 21,2 C 12,1 C 0,2 UV-I 0,0 C 60 % 92 % 0 % 1016,8 hPa 0,0 l/m 0,0 km/h (0 Bft) 0 min 0,0 km/h (0 Bft)
03.08.2009 06:50 21,2 C 12,1 C 0,2 UV-I 0,0 C 60 % 92 % 0 % 1016,8 hPa 0,0 l/m 0,0 km/h (0 Bft) 0 min 0,0 km/h (0 Bft)
03.08.2009 06:52 21,3 C 12,1 C 0,2 UV-I 0,0 C 60 % 92 % 0 % 1016,8 hPa 0,0 l/m 0,0 km/h (0 Bft) 0 min 0,0 km/h (0 Bft)
03.08.2009 06:54 21,2 C 12,0 C 0,2 UV-I 0,0 C 60 % 92 % 0 % 1016,8 hPa 0,0 l/m 0,0 km/h (0 Bft) 0 min 0,0 km/h (0 Bft)
03.08.2009 06:56 21,2 C 12,1 C 0,2 UV-I 0,0 C 60 % 92 % 0 % 1016,8 hPa 0,0 l/m 0,0 km/h (0 Bft) 0 min 0,0 km/h (0 Bft)
03.08.2009 06:58 21,2 C 12,1 C 0,2 UV-I 0,0 C 60 % 92 % 0 % 1016,8 hPa 0,0 l/m 0,0 km/h (0 Bft) 0 min 0,0 km/h (0 Bft)
03.08.2009 07:00 21,2 C 12,1 C 0,2 UV-I 0,0 C 60 % 92 % 0 % 1016,8 hPa 0,0 l/m 0,0 km/h (0 Bft) 0 min 0,0 km/h (0 Bft)
03.08.2009 07:02 21,2 C 12,1 C 0,4 UV-I 0,0 C 60 % 92 % 0 % 1016,8 hPa 0,0 l/m 0,0 km/h (0 Bft) 0 min 0,0 km/h (0 Bft)
03.08.2009 07:04 21,2 C 12,0 C 0,4 UV-I 0,0 C 60 % 92 % 0 % 1016,8 hPa 0,0 l/m 0,0 km/h (0 Bft) 0 min 0,0 km/h (0 Bft)
03.08.2009 07:06 21,2 C 12,0 C 0,4 UV-I 0,0 C 60 % 92 % 0 % 1016,8 hPa 0,0 l/m 0,0 km/h (0 Bft) 0 min 0,0 km/h (0 Bft)
03.08.2009 07:08 21,2 C 12,0 C 0,4 UV-I 0,0 C 60 % 92 % 0 % 1016,8 hPa 0,0 l/m 0,0 km/h (0 Bft) 0 min 0,0 km/h (0 Bft)
03.08.2009 07:10 21,2 C 12,1 C 0,4 UV-I 0,0 C 60 % 92 % 0 % 1016,8 hPa 0,0 l/m 0,0 km/h (0 Bft) 0 min 0,0 km/h (0 Bft)
03.08.2009 07:12 21,2 C 12,1 C 0,5 UV-I 0,0 C 61 % 93 % 0 % 1016,8 hPa 0,0 l/m 0,0 km/h (0 Bft) 0 min 0,0 km/h (0 Bft)
03.08.2009 07:14 21,2 C 12,2 C 0,5 UV-I 0,0 C 61 % 93 % 0 % 1016,8 hPa 0,0 l/m 0,0 km/h (0 Bft) 0 min 0,0 km/h (0 Bft)
03.08.2009 07:16 21,2 C 12,1 C 0,5 UV-I 0,0 C 61 % 93 % 0 % 1016,8 hPa 0,0 l/m 0,0 km/h (0 Bft) 0 min 0,0 km/h (0 Bft)
03.08.2009 07:18 21,2 C 12,1 C 0,5 UV-I 0,0 C 60 % 93 % 0 % 1016,8 hPa 0,0 l/m 0,0 km/h (0 Bft) 0 min 0,0 km/h (0 Bft)
03.08.2009 07:20 21,2 C 12,1 C 0,5 UV-I 0,0 C 61 % 93 % 0 % 1016,8 hPa 0,0 l/m 0,0 km/h (0 Bft) 0 min 0,0 km/h (0 Bft)
03.08.2009 07:22 21,2 C 12,2 C 0,6 UV-I 0,0 C 61 % 93 % 0 % 1016,8 hPa 0,0 l/m 0,0 km/h (0 Bft) 0 min 0,0 km/h (0 Bft)
03.08.2009 07:24 21,2 C 12,3 C 0,6 UV-I 0,0 C 61 % 93 % 0 % 1016,8 hPa 0,0 l/m 0,0 km/h (0 Bft) 0 min 0,0 km/h (0 Bft)
03.08.2009 07:26 21,2 C 12,3 C 0,6 UV-I 0,0 C 61 % 93 % 0 % 1016,8 hPa 0,0 l/m 0,0 km/h (0 Bft) 0 min 0,0 km/h (0 Bft)
03.08.2009 07:28 21,2 C 12,3 C 0,6 UV-I 0,0 C 61 % 93 % 0 % 1016,8 hPa 0,0 l/m 0,0 km/h (0 Bft) 0 min 0,0 km/h (0 Bft)
03.08.2009 07:30 21,2 C 12,3 C 0,6 UV-I 0,0 C 61 % 93 % 0 % 1016,8 hPa 0,0 l/m 0,0 km/h (0 Bft) 0 min 0,0 km/h (0 Bft)
03.08.2009 07:32 21,2 C 12,3 C 0,7 UV-I 0,0 C 60 % 93 % 0 % 1016,8 hPa 0,0 l/m 0,0 km/h (0 Bft) 0 min 0,0 km/h (0 Bft)
03.08.2009 07:34 21,2 C 12,3 C 0,7 UV-I 0,0 C 60 % 93 % 0 % 1016,8 hPa 0,0 l/m 0,0 km/h (0 Bft) 0 min 0,0 km/h (0 Bft)
03.08.2009 07:36 21,2 C 12,2 C 0,7 UV-I 0,0 C 60 % 93 % 0 % 1016,8 hPa 0,0 l/m 0,0 km/h (0 Bft) 0 min 0,0 km/h (0 Bft)
03.08.2009 07:38 21,2 C 12,3 C 0,7 UV-I 0,0 C 60 % 93 % 0 % 1016,8 hPa 0,0 l/m 0,0 km/h (0 Bft) 0 min 0,0 km/h (0 Bft)
03.08.2009 07:40 21,2 C 12,3 C 0,7 UV-I 0,0 C 60 % 93 % 0 % 1016,8 hPa 0,0 l/m 0,0 km/h (0 Bft) 0 min 0,0 km/h (0 Bft)
03.08.2009 07:42 21,2 C 12,4 C 0,7 UV-I 0,0 C 60 % 93 % 0 % 1016,8 hPa 0,0 l/m 0,0 km/h (0 Bft) 0 min 0,0 km/h (0 Bft)
03.08.2009 07:44 21,2 C 12,3 C 0,7 UV-I 0,0 C 60 % 93 % 0 % 1016,8 hPa 0,0 l/m 0,0 km/h (0 Bft) 0 min 0,0 km/h (0 Bft)
03.08.2009 07:48 21,2 C 12,5 C 0,9 UV-I 0,0 C 60 % 93 % 0 % 1016,8 hPa 0,0 l/m 0,0 km/h (0 Bft) 0 min 0,0 km/h (0 Bft)
03.08.2009 07:50 21,2 C 12,4 C 0,9 UV-I 0,0 C 60 % 93 % 0 % 1016,8 hPa 0,0 l/m 0,0 km/h (0 Bft) 0 min 0,0 km/h (0 Bft)
03.08.2009 07:52 21,2 C 12,4 C 0,9 UV-I 0,0 C 60 % 93 % 0 % 1016,8 hPa 0,0 l/m 0,0 km/h (0 Bft) 0 min 0,0 km/h (0 Bft)
03.08.2009 07:54 21,2 C 12,5 C 0,9 UV-I 0,0 C 60 % 94 % 0 % 1016,8 hPa 0,0 l/m 0,0 km/h (0 Bft) 0 min 0,0 km/h (0 Bft)
03.08.2009 07:56 21,2 C 12,5 C 1,0 UV-I 0,0 C 60 % 94 % 0 % 1017,4 hPa 0,0 l/m 0,0 km/h (0 Bft) 0 min 0,0 km/h (0 Bft)
03.08.2009 07:58 21,2 C 12,5 C 1,0 UV-I 0,1 C 60 % 94 % 3 % 1017,4 hPa 0,0 l/m 0,0 km/h (0 Bft) 0 min 0,0 km/h (0 Bft)
03.08.2009 08:02 21,2 C 12,7 C 1,0 UV-I 0,0 C 61 % 94 % 0 % 1017,4 hPa 0,0 l/m 0,0 km/h (0 Bft) 0 min 0,0 km/h (0 Bft)
03.08.2009 08:04 21,2 C 12,7 C 1,0 UV-I 0,0 C 61 % 94 % 0 % 1017,4 hPa 0,0 l/m 0,0 km/h (0 Bft) 0 min 0,0 km/h (0 Bft)
03.08.2009 08:06 21,2 C 12,6 C 1,1 UV-I 0,2 C 61 % 94 % 6 % 1017,4 hPa 0,0 l/m 0,0 km/h (0 Bft) 0 min 0,0 km/h (0 Bft)
03.08.2009 08:08 21,2 C 12,7 C 1,1 UV-I 0,2 C 61 % 94 % 6 % 1017,4 hPa 0,0 l/m 0,0 km/h (0 Bft) 0 min 0,0 km/h (0 Bft)
03.08.2009 08:10 21,2 C 12,7 C 1,1 UV-I 0,2 C 61 % 94 % 6 % 1017,4 hPa 0,0 l/m 0,0 km/h (0 Bft) 0 min 0,0 km/h (0 Bft)
03.08.2009 08:12 21,2 C 12,8 C 1,1 UV-I 0,2 C 61 % 94 % 6 % 1017,4 hPa 0,0 l/m 0,0 km/h (0 Bft) 0 min 0,0 km/h (0 Bft)
03.08.2009 08:14 21,2 C 12,8 C 1,1 UV-I 0,2 C 61 % 94 % 6 % 1017,4 hPa 0,0 l/m 0,0 km/h (0 Bft) 0 min 0,0 km/h (0 Bft)
03.08.2009 08:16 21,2 C 12,9 C 1,2 UV-I 0,2 C 61 % 94 % 6 % 1017,0 hPa 0,0 l/m 0,0 km/h (0 Bft) 0 min 0,0 km/h (0 Bft)
03.08.2009 08:18 21,2 C 12,8 C 1,2 UV-I 0,3 C 61 % 94 % 9 % 1017,0 hPa 0,0 l/m 0,0 km/h (0 Bft) 0 min 0,0 km/h (0 Bft)
03.08.2009 08:20 21,2 C 12,8 C 1,2 UV-I 0,4 C 61 % 94 % 11 % 1017,0 hPa 0,0 l/m 0,0 km/h (0 Bft) 0 min 0,0 km/h (0 Bft)
03.08.2009 08:22 21,2 C 12,9 C 1,2 UV-I 0,3 C 61 % 94 % 9 % 1017,0 hPa 0,0 l/m 0,0 km/h (0 Bft) 0 min 0,0 km/h (0 Bft)
03.08.2009 08:24 21,2 C 12,9 C 1,2 UV-I 0,3 C 61 % 94 % 9 % 1017,0 hPa 0,0 l/m 0,0 km/h (0 Bft) 0 min 0,0 km/h (0 Bft)
03.08.2009 08:26 21,2 C 12,9 C 1,3 UV-I 0,5 C 61 % 94 % 14 % 1017,0 hPa 0,0 l/m 0,0 km/h (0 Bft) 0 min 0,0 km/h (0 Bft)
03.08.2009 08:28 21,2 C 13,0 C 1,3 UV-I 0,4 C 61 % 94 % 11 % 1017,0 hPa 0,0 l/m 0,0 km/h (0 Bft) 0 min 0,0 km/h (0 Bft)
03.08.2009 08:30 21,2 C 13,1 C 1,3 UV-I 0,4 C 61 % 94 % 11 % 1017,0 hPa 0,0 l/m 0,0 km/h (0 Bft) 0 min 0,0 km/h (0 Bft)
03.08.2009 08:32 21,2 C 13,1 C 1,4 UV-I 0,5 C 61 % 94 % 14 % 1017,0 hPa 0,0 l/m 0,0 km/h (0 Bft) 0 min 0,0 km/h (0 Bft)
03.08.2009 08:34 21,2 C 13,1 C 1,4 UV-I 0,5 C 61 % 94 % 14 % 1017,0 hPa 0,0 l/m 0,0 km/h (0 Bft) 0 min 0,0 km/h (0 Bft)
03.08.2009 08:36 21,2 C 13,1 C 1,5 UV-I 0,6 C 61 % 94 % 17 % 1017,2 hPa 0,0 l/m 0,0 km/h (0 Bft) 0 min 0,0 km/h (0 Bft)
03.08.2009 08:38 21,2 C 13,2 C 1,5 UV-I 0,6 C 61 % 94 % 17 % 1017,2 hPa 0,0 l/m 0,0 km/h (0 Bft) 0 min 0,0 km/h (0 Bft)
03.08.2009 08:40 21,2 C 13,2 C 1,5 UV-I 0,7 C 61 % 94 % 20 % 1017,2 hPa 0,0 l/m 0,5 km/h (0 Bft) 0 min 3,6 km/h (1 Bft)
03.08.2009 08:42 21,2 C 13,3 C 1,6 UV-I 0,7 C 61 % 94 % 20 % 1017,2 hPa 0,0 l/m 0,5 km/h (0 Bft) 0 min 3,6 km/h (1 Bft)
03.08.2009 08:44 21,2 C 13,5 C 1,6 UV-I 0,5 C 61 % 94 % 14 % 1017,2 hPa 0,0 l/m 1,0 km/h (0 Bft) 0 min 3,6 km/h (1 Bft)
03.08.2009 08:46 21,2 C 13,5 C 1,6 UV-I 0,6 C 60 % 94 % 17 % 1017,2 hPa 0,0 l/m 1,2 km/h (1 Bft) 0 min 3,6 km/h (1 Bft)
03.08.2009 08:48 21,2 C 13,5 C 1,6 UV-I 0,7 C 60 % 94 % 20 % 1017,2 hPa 0,0 l/m 1,4 km/h (1 Bft) 0 min 3,6 km/h (1 Bft)
03.08.2009 08:50 21,2 C 13,5 C 1,6 UV-I 0,7 C 60 % 94 % 20 % 1017,2 hPa 0,0 l/m 1,7 km/h (1 Bft) 0 min 3,6 km/h (1 Bft)
03.08.2009 08:52 21,2 C 13,6 C 1,7 UV-I 0,7 C 60 % 94 % 20 % 1017,2 hPa 0,0 l/m 1,4 km/h (1 Bft) 0 min 5,1 km/h (1 Bft)
03.08.2009 08:54 21,2 C 13,7 C 1,7 UV-I 0,8 C 60 % 94 % 23 % 1017,2 hPa 0,0 l/m 1,2 km/h (1 Bft) 0 min 3,6 km/h (1 Bft)
03.08.2009 08:56 21,2 C 13,6 C 1,7 UV-I 0,9 C 60 % 94 % 26 % 1017,2 hPa 0,0 l/m 0,7 km/h (0 Bft) 0 min 0,0 km/h (0 Bft)
03.08.2009 08:58 21,2 C 13,7 C 1,8 UV-I 0,9 C 60 % 94 % 26 % 1017,2 hPa 0,0 l/m 0,7 km/h (0 Bft) 0 min 0,0 km/h (0 Bft)
03.08.2009 09:02 21,2 C 13,9 C 1,9 UV-I 1,0 C 60 % 93 % 29 % 1017,2 hPa 0,0 l/m 0,7 km/h (0 Bft) 0 min 4,6 km/h (1 Bft)
03.08.2009 09:04 21,3 C 14,0 C 1,9 UV-I 1,0 C 60 % 93 % 29 % 1017,2 hPa 0,0 l/m 0,7 km/h (0 Bft) 0 min 4,6 km/h (1 Bft)
03.08.2009 09:06 21,3 C 14,0 C 2,0 UV-I 1,1 C 60 % 93 % 31 % 1017,2 hPa 0,0 l/m 0,7 km/h (0 Bft) 0 min 0,0 km/h (0 Bft)
03.08.2009 09:08 21,3 C 14,0 C 2,0 UV-I 1,2 C 60 % 93 % 34 % 1017,2 hPa 0,0 l/m 0,7 km/h (0 Bft) 0 min 0,0 km/h (0 Bft)
03.08.2009 09:10 21,3 C 14,2 C 2,0 UV-I 1,1 C 60 % 93 % 31 % 1017,2 hPa 0,0 l/m 0,7 km/h (0 Bft) 0 min 3,4 km/h (1 Bft)
03.08.2009 09:12 21,3 C 14,2 C 2,0 UV-I 1,2 C 60 % 92 % 34 % 1017,2 hPa 0,0 l/m 0,5 km/h (0 Bft) 0 min 3,4 km/h (1 Bft)
03.08.2009 09:14 21,2 C 14,3 C 2,0 UV-I 1,2 C 60 % 92 % 34 % 1017,2 hPa 0,0 l/m 0,2 km/h (0 Bft) 0 min 2,4 km/h (1 Bft)
03.08.2009 09:16 21,2 C 14,4 C 2,1 UV-I 1,1 C 60 % 92 % 31 % 1017,2 hPa 0,0 l/m 0,2 km/h (0 Bft) 0 min 2,4 km/h (1 Bft)
03.08.2009 09:20 21,2 C 14,4 C 2,1 UV-I 1,3 C 60 % 92 % 37 % 1017,2 hPa 0,0 l/m 0,5 km/h (0 Bft) 0 min 2,6 km/h (1 Bft)
03.08.2009 09:22 21,2 C 14,5 C 2,1 UV-I 1,4 C 60 % 92 % 40 % 1017,2 hPa 0,0 l/m 0,5 km/h (0 Bft) 0 min 3,6 km/h (1 Bft)
03.08.2009 09:26 21,2 C 14,7 C 2,4 UV-I 1,4 C 60 % 92 % 40 % 1017,2 hPa 0,0 l/m 0,7 km/h (0 Bft) 0 min 3,6 km/h (1 Bft)
03.08.2009 09:30 21,4 C 14,8 C 2,4 UV-I 1,5 C 60 % 91 % 43 % 1017,2 hPa 0,0 l/m 1,7 km/h (1 Bft) 0 min 5,5 km/h (1 Bft)
03.08.2009 09:32 21,4 C 15,0 C 2,5 UV-I 1,5 C 60 % 91 % 43 % 1017,2 hPa 0,0 l/m 1,2 km/h (1 Bft) 0 min 6,5 km/h (2 Bft)
03.08.2009 09:34 21,4 C 15,1 C 2,5 UV-I 1,5 C 60 % 91 % 43 % 1017,2 hPa 0,0 l/m 1,0 km/h (0 Bft) 0 min 0,0 km/h (0 Bft)
03.08.2009 09:36 21,4 C 15,0 C 2,5 UV-I 1,9 C 60 % 91 % 54 % 1017,3 hPa 0,0 l/m 1,2 km/h (1 Bft) 0 min 5,8 km/h (2 Bft)
03.08.2009 09:38 21,4 C 15,2 C 2,5 UV-I 1,9 C 60 % 90 % 54 % 1017,3 hPa 0,0 l/m 1,4 km/h (1 Bft) 0 min 6,5 km/h (2 Bft)
03.08.2009 09:40 21,4 C 15,2 C 2,5 UV-I 2,0 C 60 % 90 % 57 % 1017,3 hPa 0,0 l/m 1,4 km/h (1 Bft) 0 min 6,5 km/h (2 Bft)
03.08.2009 09:42 21,4 C 15,4 C 2,5 UV-I 2,0 C 60 % 90 % 57 % 1017,3 hPa 0,0 l/m 1,4 km/h (1 Bft) 0 min 2,9 km/h (1 Bft)
03.08.2009 09:46 21,5 C 15,6 C 2,5 UV-I 2,2 C 60 % 89 % 63 % 1017,3 hPa 0,0 l/m 1,9 km/h (1 Bft) 0 min 4,6 km/h (1 Bft)
03.08.2009 09:48 21,4 C 15,6 C 2,5 UV-I 2,3 C 60 % 88 % 66 % 1017,3 hPa 0,0 l/m 1,7 km/h (1 Bft) 0 min 5,1 km/h (1 Bft)
03.08.2009 09:50 21,4 C 15,7 C 2,5 UV-I 2,3 C 60 % 88 % 66 % 1017,3 hPa 0,0 l/m 1,7 km/h (1 Bft) 0 min 6,7 km/h (2 Bft)
03.08.2009 09:54 21,5 C 15,9 C 2,6 UV-I 2,9 C 60 % 88 % 83 % 1017,3 hPa 0,0 l/m 2,2 km/h (1 Bft) 2 min 6,7 km/h (2 Bft)
03.08.2009 09:58 21,5 C 16,0 C 2,6 UV-I 3,2 C 60 % 87 % 91 % 1017,6 hPa 0,0 l/m 1,7 km/h (1 Bft) 2 min 3,1 km/h (1 Bft)
03.08.2009 10:00 21,5 C 16,0 C 2,6 UV-I 3,4 C 60 % 87 % 97 % 1017,6 hPa 0,0 l/m 1,7 km/h (1 Bft) 2 min 3,1 km/h (1 Bft)
03.08.2009 10:02 21,5 C 16,0 C 2,7 UV-I 3,5 C 59 % 87 % 100 % 1017,6 hPa 0,0 l/m 1,2 km/h (1 Bft) 2 min 6,0 km/h (2 Bft)
03.08.2009 10:04 21,5 C 16,1 C 2,7 UV-I 3,5 C 59 % 86 % 100 % 1017,6 hPa 0,0 l/m 2,2 km/h (1 Bft) 2 min 6,7 km/h (2 Bft)
03.08.2009 10:06 21,6 C 16,2 C 2,7 UV-I 3,3 C 59 % 86 % 94 % 1017,6 hPa 0,0 l/m 2,4 km/h (1 Bft) 2 min 6,7 km/h (2 Bft)
03.08.2009 10:08 21,6 C 16,3 C 2,9 UV-I 3,3 C 60 % 86 % 94 % 1017,6 hPa 0,0 l/m 2,6 km/h (1 Bft) 2 min 0,0 km/h (0 Bft)
03.08.2009 10:10 21,6 C 16,5 C 2,9 UV-I 3,5 C 60 % 85 % 100 % 1017,6 hPa 0,0 l/m 2,6 km/h (1 Bft) 2 min 3,1 km/h (1 Bft)
03.08.2009 10:12 21,6 C 16,5 C 3,2 UV-I 3,7 C 60 % 85 % 100 % 1017,6 hPa 0,0 l/m 2,6 km/h (1 Bft) 2 min 9,6 km/h (2 Bft)
03.08.2009 10:14 21,6 C 16,7 C 3,2 UV-I 3,7 C 60 % 85 % 100 % 1017,6 hPa 0,0 l/m 1,9 km/h (1 Bft) 2 min 3,4 km/h (1 Bft)
03.08.2009 10:20 21,6 C 16,8 C 3,6 UV-I 4,3 C 60 % 84 % 100 % 1017,5 hPa 0,0 l/m 1,0 km/h (0 Bft) 2 min 3,4 km/h (1 Bft)
03.08.2009 10:22 21,6 C 17,0 C 7,0 UV-I 4,7 C 60 % 83 % 100 % 1017,5 hPa 0,0 l/m 0,7 km/h (0 Bft) 2 min 0,0 km/h (0 Bft)
03.08.2009 10:24 21,6 C 17,1 C 7,0 UV-I 5,0 C 60 % 83 % 100 % 1017,5 hPa 0,0 l/m 0,7 km/h (0 Bft) 2 min 3,4 km/h (1 Bft)
03.08.2009 10:26 21,7 C 17,2 C 7,0 UV-I 5,4 C 60 % 82 % 100 % 1017,5 hPa 0,0 l/m 1,7 km/h (1 Bft) 2 min 4,3 km/h (1 Bft)
03.08.2009 10:28 21,7 C 17,5 C 9,2 UV-I 5,0 C 60 % 81 % 100 % 1017,5 hPa 0,0 l/m 2,2 km/h (1 Bft) 2 min 9,4 km/h (2 Bft)
03.08.2009 10:32 21,7 C 17,5 C 6,1 UV-I 4,3 C 59 % 80 % 100 % 1017,5 hPa 0,0 l/m 3,6 km/h (1 Bft) 2 min 12,0 km/h (2 Bft)
03.08.2009 10:36 21,8 C 17,6 C 6,1 UV-I 3,9 C 59 % 79 % 100 % 1017,9 hPa 0,0 l/m 2,6 km/h (1 Bft) 2 min 4,6 km/h (1 Bft)
03.08.2009 10:38 21,8 C 17,7 C 5,5 UV-I 3,6 C 59 % 79 % 100 % 1017,9 hPa 0,0 l/m 2,4 km/h (1 Bft) 2 min 4,6 km/h (1 Bft)
03.08.2009 10:40 21,8 C 17,7 C 5,5 UV-I 3,6 C 59 % 79 % 100 % 1017,9 hPa 0,0 l/m 1,4 km/h (1 Bft) 2 min 0,0 km/h (0 Bft)
03.08.2009 10:42 21,8 C 17,9 C 6,4 UV-I 3,6 C 59 % 79 % 100 % 1017,9 hPa 0,0 l/m 1,0 km/h (0 Bft) 2 min 0,0 km/h (0 Bft)
03.08.2009 10:44 21,8 C 17,9 C 6,4 UV-I 3,8 C 59 % 78 % 100 % 1017,9 hPa 0,0 l/m 0,7 km/h (0 Bft) 2 min 0,0 km/h (0 Bft)
03.08.2009 10:46 21,8 C 18,1 C 6,4 UV-I 3,8 C 59 % 78 % 100 % 1017,9 hPa 0,0 l/m 0,7 km/h (0 Bft) 2 min 0,0 km/h (0 Bft)
03.08.2009 10:48 21,8 C 18,1 C 7,8 UV-I 4,1 C 59 % 77 % 100 % 1017,9 hPa 0,0 l/m 0,5 km/h (0 Bft) 2 min 0,0 km/h (0 Bft)
03.08.2009 10:50 21,8 C 18,1 C 7,8 UV-I 4,2 C 59 % 77 % 100 % 1017,9 hPa 0,0 l/m 0,5 km/h (0 Bft) 2 min 0,0 km/h (0 Bft)
03.08.2009 10:52 21,9 C 18,2 C 6,7 UV-I 4,2 C 59 % 77 % 100 % 1017,9 hPa 0,0 l/m 0,5 km/h (0 Bft) 2 min 0,0 km/h (0 Bft)
03.08.2009 10:54 21,9 C 18,2 C 6,7 UV-I 4,2 C 59 % 76 % 100 % 1017,9 hPa 0,0 l/m 0,5 km/h (0 Bft) 2 min 0,0 km/h (0 Bft)
03.08.2009 10:56 21,9 C 18,3 C 6,7 UV-I 4,1 C 59 % 76 % 100 % 1018,0 hPa 0,0 l/m 0,7 km/h (0 Bft) 2 min 5,1 km/h (1 Bft)
03.08.2009 10:58 21,9 C 18,3 C 5,8 UV-I 3,8 C 59 % 75 % 100 % 1018,0 hPa 0,0 l/m 1,2 km/h (1 Bft) 2 min 5,3 km/h (1 Bft)
03.08.2009 11:00 21,9 C 18,5 C 5,8 UV-I 3,6 C 59 % 74 % 100 % 1018,0 hPa 0,0 l/m 1,0 km/h (0 Bft) 2 min 5,3 km/h (1 Bft)
03.08.2009 11:02 21,9 C 18,4 C 8,0 UV-I 4,0 C 59 % 74 % 100 % 1018,0 hPa 0,0 l/m 1,0 km/h (0 Bft) 2 min 0,0 km/h (0 Bft)
03.08.2009 11:04 21,9 C 18,5 C 8,0 UV-I 4,3 C 59 % 73 % 100 % 1018,0 hPa 0,0 l/m 1,7 km/h (1 Bft) 2 min 5,3 km/h (1 Bft)
03.08.2009 11:06 21,9 C 18,7 C 8,0 UV-I 4,4 C 59 % 73 % 100 % 1018,0 hPa 0,0 l/m 1,7 km/h (1 Bft) 2 min 0,0 km/h (0 Bft)
03.08.2009 11:08 21,9 C 18,7 C 10,3 UV-I 4,8 C 59 % 72 % 100 % 1018,0 hPa 0,0 l/m 1,2 km/h (1 Bft) 2 min 0,0 km/h (0 Bft)
03.08.2009 11:10 21,9 C 18,8 C 10,3 UV-I 5,2 C 59 % 71 % 100 % 1018,0 hPa 0,0 l/m 1,0 km/h (0 Bft) 2 min 0,0 km/h (0 Bft)
03.08.2009 11:12 22,0 C 18,9 C 11,3 UV-I 5,5 C 59 % 69 % 100 % 1018,0 hPa 0,0 l/m 1,0 km/h (0 Bft) 2 min 0,0 km/h (0 Bft)
03.08.2009 11:14 22,0 C 19,0 C 11,3 UV-I 6,0 C 59 % 69 % 100 % 1018,0 hPa 0,0 l/m 1,2 km/h (1 Bft) 2 min 3,1 km/h (1 Bft)
03.08.2009 11:16 22,0 C 19,1 C 11,3 UV-I 6,1 C 59 % 70 % 100 % 1017,8 hPa 0,0 l/m 0,7 km/h (0 Bft) 2 min 3,1 km/h (1 Bft)
03.08.2009 11:18 22,0 C 19,1 C 9,6 UV-I 6,1 C 59 % 69 % 100 % 1017,8 hPa 0,0 l/m 1,0 km/h (0 Bft) 2 min 4,3 km/h (1 Bft)
03.08.2009 11:24 22,0 C 19,3 C 8,1 UV-I 5,7 C 59 % 69 % 100 % 1017,8 hPa 0,0 l/m 1,0 km/h (0 Bft) 2 min 4,3 km/h (1 Bft)
03.08.2009 11:26 22,0 C 19,3 C 8,1 UV-I 5,6 C 59 % 69 % 100 % 1017,8 hPa 0,0 l/m 0,7 km/h (0 Bft) 2 min 0,0 km/h (0 Bft)
03.08.2009 11:28 22,0 C 19,5 C 8,1 UV-I 5,7 C 59 % 70 % 100 % 1017,8 hPa 0,0 l/m 0,5 km/h (0 Bft) 2 min 0,0 km/h (0 Bft)
03.08.2009 11:30 22,0 C 19,5 C 8,1 UV-I 5,9 C 59 % 71 % 100 % 1017,8 hPa 0,0 l/m 0,2 km/h (0 Bft) 2 min 0,0 km/h (0 Bft)
03.08.2009 11:32 22,0 C 19,6 C 10,2 UV-I 6,5 C 59 % 70 % 100 % 1017,8 hPa 0,0 l/m 0,2 km/h (0 Bft) 2 min 4,1 km/h (1 Bft)
03.08.2009 11:36 22,0 C 19,9 C 10,2 UV-I 7,2 C 59 % 69 % 100 % 1017,8 hPa 0,0 l/m 0,5 km/h (0 Bft) 2 min 4,1 km/h (1 Bft)
03.08.2009 11:38 22,0 C 20,0 C 11,3 UV-I 7,5 C 59 % 69 % 100 % 1017,8 hPa 0,0 l/m 0,5 km/h (0 Bft) 2 min 0,0 km/h (0 Bft)
03.08.2009 11:42 22,1 C 20,2 C 10,2 UV-I 7,4 C 59 % 67 % 100 % 1017,8 hPa 0,0 l/m 0,7 km/h (0 Bft) 2 min 4,3 km/h (1 Bft)
03.08.2009 11:44 22,1 C 20,4 C 10,2 UV-I 7,3 C 59 % 68 % 100 % 1017,8 hPa 0,0 l/m 0,5 km/h (0 Bft) 2 min 3,6 km/h (1 Bft)
03.08.2009 11:47 22,1 C 20,7 C 7,0 UV-I 5,8 C 59 % 66 % 100 % 1017,8 hPa 0,0 l/m 1,4 km/h (1 Bft) 2 min 4,8 km/h (1 Bft)
03.08.2009 11:50 22,2 C 20,6 C 7,0 UV-I 4,7 C 59 % 66 % 100 % 1017,8 hPa 0,0 l/m 1,9 km/h (1 Bft) 2 min 4,8 km/h (1 Bft)
03.08.2009 11:52 22,2 C 20,6 C 3,3 UV-I 4,1 C 59 % 65 % 100 % 1017,8 hPa 0,0 l/m 1,7 km/h (1 Bft) 2 min 2,6 km/h (1 Bft)
03.08.2009 11:54 22,2 C 20,7 C 3,3 UV-I 3,5 C 59 % 64 % 100 % 1017,8 hPa 0,0 l/m 1,7 km/h (1 Bft) 2 min 0,0 km/h (0 Bft)
03.08.2009 11:56 22,2 C 20,7 C 3,3 UV-I 3,6 C 59 % 63 % 100 % 1017,7 hPa 0,0 l/m 1,4 km/h (1 Bft) 2 min 0,0 km/h (0 Bft)
03.08.2009 11:58 22,2 C 20,8 C 6,4 UV-I 3,8 C 59 % 65 % 100 % 1017,7 hPa 0,0 l/m 1,0 km/h (0 Bft) 2 min 0,0 km/h (0 Bft)
03.08.2009 12:00 22,2 C 20,9 C 6,4 UV-I 4,2 C 59 % 65 % 100 % 1017,7 hPa 0,0 l/m 1,0 km/h (0 Bft) 2 min 3,4 km/h (1 Bft)
03.08.2009 12:02 22,2 C 21,1 C 7,3 UV-I 4,1 C 59 % 65 % 100 % 1017,7 hPa 0,0 l/m 1,2 km/h (1 Bft) 2 min 11,1 km/h (2 Bft)
03.08.2009 12:04 22,3 C 21,2 C 7,3 UV-I 3,9 C 59 % 65 % 100 % 1017,7 hPa 0,0 l/m 1,7 km/h (1 Bft) 2 min 11,1 km/h (2 Bft)
03.08.2009 12:06 22,2 C 21,3 C 7,3 UV-I 4,0 C 59 % 64 % 100 % 1017,7 hPa 0,0 l/m 1,7 km/h (1 Bft) 2 min 0,0 km/h (0 Bft)
03.08.2009 12:08 22,3 C 21,3 C 6,9 UV-I 4,2 C 58 % 64 % 100 % 1017,7 hPa 0,0 l/m 1,9 km/h (1 Bft) 2 min 4,3 km/h (1 Bft)
03.08.2009 12:10 22,3 C 21,3 C 6,9 UV-I 4,2 C 59 % 63 % 100 % 1017,7 hPa 0,0 l/m 1,9 km/h (1 Bft) 2 min 4,3 km/h (1 Bft)
03.08.2009 12:12 22,3 C 21,4 C 5,0 UV-I 3,8 C 58 % 61 % 100 % 1017,7 hPa 0,0 l/m 1,2 km/h (1 Bft) 2 min 2,9 km/h (1 Bft)
03.08.2009 12:14 22,3 C 21,3 C 5,0 UV-I 3,8 C 59 % 60 % 100 % 1017,7 hPa 0,0 l/m 0,7 km/h (0 Bft) 2 min 2,9 km/h (1 Bft)
03.08.2009 12:16 22,3 C 21,3 C 5,0 UV-I 3,7 C 59 % 61 % 100 % 1017,9 hPa 0,0 l/m 1,2 km/h (1 Bft) 2 min 5,5 km/h (1 Bft)
03.08.2009 12:18 22,3 C 21,4 C 5,8 UV-I 3,5 C 58 % 60 % 100 % 1017,9 hPa 0,0 l/m 1,4 km/h (1 Bft) 2 min 5,5 km/h (1 Bft)
03.08.2009 12:20 22,2 C 21,3 C 5,8 UV-I 3,4 C 58 % 60 % 97 % 1017,9 hPa 0,0 l/m 1,4 km/h (1 Bft) 2 min 0,0 km/h (0 Bft)
03.08.2009 12:22 22,4 C 21,5 C 5,4 UV-I 3,0 C 58 % 60 % 86 % 1017,9 hPa 0,0 l/m 1,4 km/h (1 Bft) 2 min 0,0 km/h (0 Bft)
03.08.2009 12:24 22,4 C 21,5 C 5,4 UV-I 3,0 C 58 % 60 % 86 % 1017,9 hPa 0,0 l/m 1,4 km/h (1 Bft) 2 min 0,0 km/h (0 Bft)
03.08.2009 12:26 22,4 C 21,5 C 5,4 UV-I 3,2 C 58 % 60 % 91 % 1017,9 hPa 0,0 l/m 1,4 km/h (1 Bft) 2 min 4,8 km/h (1 Bft)
03.08.2009 12:28 22,4 C 21,5 C 5,5 UV-I 3,2 C 58 % 59 % 91 % 1017,9 hPa 0,0 l/m 1,2 km/h (1 Bft) 2 min 5,8 km/h (2 Bft)
03.08.2009 12:30 22,4 C 21,6 C 5,5 UV-I 3,0 C 58 % 60 % 86 % 1017,9 hPa 0,0 l/m 1,9 km/h (1 Bft) 2 min 7,7 km/h (2 Bft)
03.08.2009 12:32 22,4 C 21,7 C 4,8 UV-I 2,6 C 58 % 60 % 74 % 1017,9 hPa 0,0 l/m 1,7 km/h (1 Bft) 0 min 7,7 km/h (2 Bft)
03.08.2009 12:34 22,4 C 21,6 C 4,8 UV-I 2,7 C 58 % 60 % 77 % 1017,9 hPa 0,0 l/m 2,6 km/h (1 Bft) 0 min 7,0 km/h (2 Bft)
03.08.2009 12:36 22,4 C 21,7 C 4,8 UV-I 2,3 C 58 % 61 % 66 % 1018,0 hPa 0,0 l/m 2,9 km/h (1 Bft) 0 min 7,0 km/h (2 Bft)
03.08.2009 12:38 22,5 C 21,7 C 4,0 UV-I 2,1 C 58 % 60 % 60 % 1018,0 hPa 0,0 l/m 2,6 km/h (1 Bft) 0 min 4,8 km/h (1 Bft)
03.08.2009 12:40 22,5 C 21,7 C 4,0 UV-I 2,2 C 58 % 60 % 63 % 1018,0 hPa 0,0 l/m 1,9 km/h (1 Bft) 0 min 2,6 km/h (1 Bft)
03.08.2009 12:42 22,5 C 21,9 C 5,7 UV-I 2,3 C 58 % 59 % 66 % 1018,0 hPa 0,0 l/m 1,9 km/h (1 Bft) 0 min 8,4 km/h (2 Bft)
03.08.2009 12:44 22,5 C 21,9 C 5,7 UV-I 2,5 C 58 % 59 % 71 % 1018,0 hPa 0,0 l/m 2,6 km/h (1 Bft) 0 min 8,4 km/h (2 Bft)
03.08.2009 12:46 22,5 C 21,8 C 5,7 UV-I 2,6 C 58 % 60 % 74 % 1018,0 hPa 0,0 l/m 2,2 km/h (1 Bft) 0 min 4,3 km/h (1 Bft)
03.08.2009 12:48 22,6 C 22,1 C 6,9 UV-I 2,6 C 58 % 58 % 74 % 1018,0 hPa 0,0 l/m 1,9 km/h (1 Bft) 0 min 0,0 km/h (0 Bft)
03.08.2009 12:50 22,6 C 22,1 C 6,9 UV-I 3,1 C 58 % 59 % 89 % 1018,0 hPa 0,0 l/m 2,4 km/h (1 Bft) 2 min 3,1 km/h (1 Bft)
03.08.2009 12:52 22,6 C 22,3 C 7,9 UV-I 3,1 C 58 % 57 % 89 % 1018,0 hPa 0,0 l/m 2,9 km/h (1 Bft) 2 min 3,1 km/h (1 Bft)
03.08.2009 12:54 22,6 C 22,3 C 7,9 UV-I 3,7 C 58 % 57 % 100 % 1018,0 hPa 0,0 l/m 1,9 km/h (1 Bft) 2 min 5,8 km/h (2 Bft)
03.08.2009 12:56 22,6 C 22,5 C 7,9 UV-I 4,1 C 58 % 57 % 100 % 1018,0 hPa 0,0 l/m 1,7 km/h (1 Bft) 2 min 8,2 km/h (2 Bft)
03.08.2009 12:58 22,6 C 22,4 C 7,8 UV-I 4,3 C 58 % 57 % 100 % 1018,0 hPa 0,0 l/m 2,2 km/h (1 Bft) 2 min 8,2 km/h (2 Bft)
03.08.2009 13:00 22,6 C 22,4 C 7,8 UV-I 3,7 C 58 % 56 % 100 % 1018,0 hPa 0,0 l/m 2,4 km/h (1 Bft) 2 min 7,9 km/h (2 Bft)
03.08.2009 13:02 22,6 C 22,5 C 5,0 UV-I 3,0 C 58 % 55 % 86 % 1018,0 hPa 0,0 l/m 2,2 km/h (1 Bft) 2 min 4,3 km/h (1 Bft)
03.08.2009 13:04 22,7 C 22,5 C 5,0 UV-I 2,6 C 58 % 56 % 74 % 1018,0 hPa 0,0 l/m 2,2 km/h (1 Bft) 0 min 2,6 km/h (1 Bft)
03.08.2009 13:06 22,7 C 22,7 C 5,0 UV-I 2,4 C 58 % 54 % 69 % 1018,0 hPa 0,0 l/m 1,9 km/h (1 Bft) 0 min 0,0 km/h (0 Bft)
03.08.2009 13:08 22,7 C 22,7 C 6,5 UV-I 2,4 C 58 % 54 % 69 % 1018,0 hPa 0,0 l/m 1,4 km/h (1 Bft) 0 min 0,0 km/h (0 Bft)
03.08.2009 13:10 22,7 C 22,5 C 6,5 UV-I 2,6 C 58 % 53 % 74 % 1018,0 hPa 0,0 l/m 1,0 km/h (0 Bft) 0 min 0,0 km/h (0 Bft)
03.08.2009 13:12 22,7 C 22,5 C 3,8 UV-I 2,4 C 57 % 51 % 69 % 1018,0 hPa 0,0 l/m 1,4 km/h (1 Bft) 0 min 5,3 km/h (1 Bft)
03.08.2009 13:14 22,7 C 22,4 C 3,8 UV-I 2,1 C 57 % 52 % 60 % 1018,0 hPa 0,0 l/m 1,9 km/h (1 Bft) 0 min 5,3 km/h (1 Bft)
03.08.2009 13:16 22,8 C 22,2 C 3,8 UV-I 1,9 C 57 % 52 % 54 % 1017,9 hPa 0,0 l/m 2,2 km/h (1 Bft) 0 min 2,9 km/h (1 Bft)
03.08.2009 13:18 22,8 C 22,3 C 3,4 UV-I 1,5 C 57 % 53 % 43 % 1017,9 hPa 0,0 l/m 2,4 km/h (1 Bft) 0 min 2,6 km/h (1 Bft)
03.08.2009 13:22 22,8 C 22,3 C 3,6 UV-I 1,4 C 57 % 54 % 40 % 1017,9 hPa 0,0 l/m 1,9 km/h (1 Bft) 0 min 0,0 km/h (0 Bft)
03.08.2009 13:24 22,8 C 22,2 C 3,6 UV-I 1,6 C 57 % 54 % 46 % 1017,9 hPa 0,0 l/m 1,2 km/h (1 Bft) 0 min 3,4 km/h (1 Bft)
03.08.2009 13:26 22,8 C 22,3 C 3,6 UV-I 1,4 C 57 % 54 % 40 % 1017,9 hPa 0,0 l/m 1,0 km/h (0 Bft) 0 min 3,4 km/h (1 Bft)
03.08.2009 13:28 22,8 C 22,3 C 3,9 UV-I 1,3 C 57 % 55 % 37 % 1017,9 hPa 0,0 l/m 1,0 km/h (0 Bft) 0 min 3,4 km/h (1 Bft)
03.08.2009 13:30 22,8 C 22,3 C 3,9 UV-I 1,2 C 57 % 54 % 34 % 1017,9 hPa 0,0 l/m 1,0 km/h (0 Bft) 0 min 0,0 km/h (0 Bft)
03.08.2009 13:32 22,8 C 22,3 C 3,7 UV-I 1,1 C 57 % 54 % 31 % 1017,9 hPa 0,0 l/m 1,0 km/h (0 Bft) 0 min 3,6 km/h (1 Bft)
03.08.2009 13:34 22,8 C 22,3 C 3,7 UV-I 0,8 C 57 % 54 % 23 % 1017,9 hPa 0,0 l/m 1,0 km/h (0 Bft) 0 min 3,6 km/h (1 Bft)
03.08.2009 13:36 22,9 C 22,2 C 3,7 UV-I 0,7 C 57 % 54 % 20 % 1018,2 hPa 0,0 l/m 0,7 km/h (0 Bft) 0 min 0,0 km/h (0 Bft)
03.08.2009 13:38 22,9 C 22,2 C 2,9 UV-I 0,5 C 57 % 54 % 14 % 1018,2 hPa 0,0 l/m 0,2 km/h (0 Bft) 0 min 0,0 km/h (0 Bft)
03.08.2009 13:40 22,9 C 22,2 C 2,9 UV-I 0,7 C 57 % 55 % 20 % 1018,2 hPa 0,0 l/m 0,2 km/h (0 Bft) 0 min 2,6 km/h (1 Bft)
03.08.2009 13:42 22,9 C 22,2 C 4,0 UV-I 0,8 C 57 % 55 % 23 % 1018,2 hPa 0,0 l/m 0,5 km/h (0 Bft) 0 min 3,6 km/h (1 Bft)
03.08.2009 13:44 22,9 C 22,3 C 4,0 UV-I 0,6 C 57 % 55 % 17 % 1018,2 hPa 0,0 l/m 0,2 km/h (0 Bft) 0 min 3,6 km/h (1 Bft)
03.08.2009 13:46 23,0 C 22,3 C 4,0 UV-I 0,6 C 57 % 55 % 17 % 1018,2 hPa 0,0 l/m 0,2 km/h (0 Bft) 0 min 0,0 km/h (0 Bft)
03.08.2009 13:48 23,0 C 22,3 C 3,1 UV-I 0,5 C 57 % 54 % 14 % 1018,2 hPa 0,0 l/m 0,2 km/h (0 Bft) 0 min 0,0 km/h (0 Bft)
03.08.2009 13:50 22,9 C 22,3 C 3,1 UV-I 0,9 C 57 % 53 % 26 % 1018,2 hPa 0,0 l/m 0,2 km/h (0 Bft) 0 min 0,0 km/h (0 Bft)
03.08.2009 13:52 23,0 C 22,3 C 3,9 UV-I 1,5 C 57 % 53 % 43 % 1018,2 hPa 0,0 l/m 0,5 km/h (0 Bft) 0 min 3,6 km/h (1 Bft)
03.08.2009 13:54 23,0 C 22,2 C 3,9 UV-I 1,7 C 57 % 53 % 49 % 1018,2 hPa 0,0 l/m 0,2 km/h (0 Bft) 0 min 3,6 km/h (1 Bft)
03.08.2009 13:56 23,0 C 22,1 C 3,9 UV-I 1,7 C 57 % 54 % 49 % 1017,9 hPa 0,0 l/m 0,5 km/h (0 Bft) 0 min 3,1 km/h (1 Bft)
03.08.2009 13:58 23,0 C 22,1 C 2,9 UV-I 1,5 C 57 % 53 % 43 % 1017,9 hPa 0,0 l/m 0,5 km/h (0 Bft) 0 min 3,1 km/h (1 Bft)
03.08.2009 14:00 23,0 C 22,1 C 2,9 UV-I 1,3 C 57 % 53 % 37 % 1017,9 hPa 0,0 l/m 0,7 km/h (0 Bft) 0 min 2,9 km/h (1 Bft)
03.08.2009 14:02 23,0 C 22,0 C 2,9 UV-I 1,2 C 56 % 54 % 34 % 1017,9 hPa 0,0 l/m 0,7 km/h (0 Bft) 0 min 2,9 km/h (1 Bft)
03.08.2009 14:04 23,0 C 22,0 C 2,9 UV-I 1,2 C 56 % 53 % 34 % 1017,9 hPa 0,0 l/m 0,7 km/h (0 Bft) 0 min 0,0 km/h (0 Bft)
03.08.2009 14:06 23,0 C 22,1 C 2,9 UV-I 0,9 C 56 % 54 % 26 % 1017,9 hPa 0,0 l/m 0,7 km/h (0 Bft) 0 min 0,0 km/h (0 Bft)
03.08.2009 14:08 23,0 C 22,1 C 1,6 UV-I 0,7 C 56 % 54 % 20 % 1017,9 hPa 0,0 l/m 0,5 km/h (0 Bft) 0 min 0,0 km/h (0 Bft)
03.08.2009 14:10 23,1 C 22,1 C 1,6 UV-I 0,5 C 56 % 54 % 14 % 1017,9 hPa 0,0 l/m 0,5 km/h (0 Bft) 0 min 0,0 km/h (0 Bft)
03.08.2009 14:12 23,1 C 22,1 C 1,6 UV-I 0,3 C 56 % 55 % 9 % 1017,9 hPa 0,0 l/m 0,2 km/h (0 Bft) 0 min 3,6 km/h (1 Bft)
03.08.2009 14:14 23,1 C 22,1 C 1,6 UV-I 0,1 C 56 % 55 % 3 % 1017,9 hPa 0,0 l/m 0,5 km/h (0 Bft) 0 min 5,1 km/h (1 Bft)
03.08.2009 14:16 23,1 C 21,9 C 1,6 UV-I 0,1 C 56 % 53 % 3 % 1018,1 hPa 0,0 l/m 0,5 km/h (0 Bft) 0 min 5,1 km/h (1 Bft)
03.08.2009 14:20 23,1 C 21,9 C 1,6 UV-I 0,0 C 56 % 56 % 0 % 1018,1 hPa 0,0 l/m 1,0 km/h (0 Bft) 0 min 3,1 km/h (1 Bft)
03.08.2009 14:22 23,1 C 21,8 C 1,2 UV-I 0,0 C 56 % 55 % 0 % 1018,1 hPa 0,0 l/m 1,0 km/h (0 Bft) 0 min 3,1 km/h (1 Bft)
03.08.2009 14:24 23,1 C 21,8 C 1,2 UV-I 0,0 C 56 % 55 % 0 % 1018,1 hPa 0,0 l/m 0,5 km/h (0 Bft) 0 min 0,0 km/h (0 Bft)
03.08.2009 14:26 23,1 C 21,7 C 1,2 UV-I 0,0 C 56 % 56 % 0 % 1018,1 hPa 0,0 l/m 0,5 km/h (0 Bft) 0 min 4,6 km/h (1 Bft)
03.08.2009 14:28 23,1 C 21,7 C 1,0 UV-I 0,0 C 56 % 55 % 0 % 1018,1 hPa 0,0 l/m 0,7 km/h (0 Bft) 0 min 4,6 km/h (1 Bft)
03.08.2009 14:30 23,1 C 21,7 C 1,0 UV-I 0,0 C 56 % 55 % 0 % 1018,1 hPa 0,0 l/m 0,7 km/h (0 Bft) 0 min 0,0 km/h (0 Bft)
03.08.2009 14:32 23,1 C 21,6 C 0,9 UV-I 0,0 C 56 % 56 % 0 % 1018,1 hPa 0,0 l/m 0,7 km/h (0 Bft) 0 min 0,0 km/h (0 Bft)
03.08.2009 14:34 23,1 C 21,5 C 0,9 UV-I 0,0 C 56 % 57 % 0 % 1018,1 hPa 0,0 l/m 0,7 km/h (0 Bft) 0 min 0,0 km/h (0 Bft)
03.08.2009 14:36 23,1 C 21,4 C 0,9 UV-I 0,0 C 56 % 56 % 0 % 1018,4 hPa 0,0 l/m 1,2 km/h (1 Bft) 0 min 4,8 km/h (1 Bft)
03.08.2009 14:38 23,1 C 21,5 C 0,9 UV-I 0,0 C 56 % 57 % 0 % 1018,4 hPa 0,0 l/m 0,7 km/h (0 Bft) 0 min 4,8 km/h (1 Bft)
03.08.2009 14:40 23,1 C 21,4 C 0,9 UV-I 0,0 C 56 % 57 % 0 % 1018,4 hPa 0,0 l/m 0,7 km/h (0 Bft) 0 min 2,6 km/h (1 Bft)
03.08.2009 14:42 23,1 C 21,4 C 1,0 UV-I 0,0 C 56 % 57 % 0 % 1018,4 hPa 0,0 l/m 1,0 km/h (0 Bft) 0 min 2,9 km/h (1 Bft)
03.08.2009 14:44 23,2 C 21,2 C 1,0 UV-I 0,0 C 55 % 58 % 0 % 1018,4 hPa 0,0 l/m 1,2 km/h (1 Bft) 0 min 2,9 km/h (1 Bft)
03.08.2009 14:46 23,1 C 21,3 C 1,0 UV-I 0,0 C 56 % 58 % 0 % 1018,4 hPa 0,0 l/m 1,2 km/h (1 Bft) 0 min 3,6 km/h (1 Bft)
03.08.2009 14:48 23,1 C 21,2 C 1,1 UV-I 0,0 C 56 % 58 % 0 % 1018,4 hPa 0,0 l/m 1,4 km/h (1 Bft) 0 min 6,5 km/h (2 Bft)
03.08.2009 14:50 23,1 C 21,1 C 1,1 UV-I 0,0 C 56 % 58 % 0 % 1018,4 hPa 0,0 l/m 1,4 km/h (1 Bft) 0 min 6,5 km/h (2 Bft)
03.08.2009 14:52 23,1 C 21,1 C 1,4 UV-I 0,0 C 56 % 59 % 0 % 1018,4 hPa 0,0 l/m 1,0 km/h (0 Bft) 0 min 0,0 km/h (0 Bft)
03.08.2009 14:54 23,1 C 21,1 C 1,4 UV-I 0,0 C 56 % 59 % 0 % 1018,4 hPa 0,0 l/m 1,0 km/h (0 Bft) 0 min 0,0 km/h (0 Bft)
03.08.2009 14:56 23,1 C 21,1 C 1,4 UV-I 0,0 C 56 % 58 % 0 % 1018,2 hPa 0,0 l/m 1,0 km/h (0 Bft) 0 min 0,0 km/h (0 Bft)
03.08.2009 14:58 23,1 C 21,1 C 1,9 UV-I 0,0 C 56 % 58 % 0 % 1018,2 hPa 0,0 l/m 1,0 km/h (0 Bft) 0 min 2,4 km/h (1 Bft)
03.08.2009 15:00 23,1 C 21,0 C 1,9 UV-I 0,0 C 56 % 58 % 0 % 1018,2 hPa 0,0 l/m 1,0 km/h (0 Bft) 0 min 7,5 km/h (2 Bft)
03.08.2009 15:02 23,1 C 21,1 C 2,8 UV-I 0,2 C 56 % 57 % 6 % 1018,2 hPa 0,0 l/m 1,4 km/h (1 Bft) 0 min 7,5 km/h (2 Bft)
03.08.2009 15:04 23,1 C 21,1 C 2,8 UV-I 0,6 C 56 % 56 % 17 % 1018,2 hPa 0,0 l/m 1,7 km/h (1 Bft) 0 min 6,3 km/h (2 Bft)
03.08.2009 15:08 23,1 C 21,1 C 3,8 UV-I 1,6 C 56 % 55 % 46 % 1018,2 hPa 0,0 l/m 1,9 km/h (1 Bft) 0 min 6,3 km/h (2 Bft)
03.08.2009 15:14 23,1 C 21,3 C 3,6 UV-I 1,9 C 56 % 54 % 54 % 1018,2 hPa 0,0 l/m 2,2 km/h (1 Bft) 0 min 5,1 km/h (1 Bft)
03.08.2009 15:16 23,1 C 21,2 C 3,6 UV-I 2,0 C 56 % 53 % 57 % 1018,3 hPa 0,0 l/m 1,7 km/h (1 Bft) 0 min 3,1 km/h (1 Bft)
03.08.2009 15:18 23,2 C 21,3 C 2,8 UV-I 1,9 C 56 % 53 % 54 % 1018,3 hPa 0,0 l/m 1,0 km/h (0 Bft) 0 min 3,1 km/h (1 Bft)
03.08.2009 15:20 23,2 C 21,2 C 2,8 UV-I 1,9 C 56 % 52 % 54 % 1018,3 hPa 0,0 l/m 1,7 km/h (1 Bft) 0 min 6,0 km/h (2 Bft)
03.08.2009 15:22 23,2 C 21,3 C 2,5 UV-I 1,6 C 56 % 53 % 46 % 1018,3 hPa 0,0 l/m 1,4 km/h (1 Bft) 0 min 6,0 km/h (2 Bft)
03.08.2009 15:24 23,2 C 21,3 C 2,5 UV-I 1,5 C 56 % 52 % 43 % 1018,3 hPa 0,0 l/m 0,7 km/h (0 Bft) 0 min 0,0 km/h (0 Bft)
03.08.2009 15:28 23,2 C 21,2 C 2,2 UV-I 1,4 C 56 % 53 % 40 % 1018,3 hPa 0,0 l/m 1,0 km/h (0 Bft) 0 min 6,0 km/h (2 Bft)
03.08.2009 15:30 23,2 C 21,3 C 2,2 UV-I 1,2 C 56 % 52 % 34 % 1018,3 hPa 0,0 l/m 0,7 km/h (0 Bft) 0 min 0,0 km/h (0 Bft)
03.08.2009 15:32 23,2 C 21,2 C 2,1 UV-I 1,2 C 56 % 53 % 34 % 1018,3 hPa 0,0 l/m 0,5 km/h (0 Bft) 0 min 0,0 km/h (0 Bft)
03.08.2009 15:34 23,2 C 21,2 C 2,1 UV-I 1,1 C 56 % 53 % 31 % 1018,3 hPa 0,0 l/m 0,5 km/h (0 Bft) 0 min 0,0 km/h (0 Bft)
03.08.2009 15:36 23,2 C 21,3 C 2,1 UV-I 1,0 C 56 % 54 % 29 % 1018,1 hPa 0,0 l/m 0,5 km/h (0 Bft) 0 min 0,0 km/h (0 Bft)
03.08.2009 15:38 23,2 C 21,3 C 2,1 UV-I 1,1 C 56 % 52 % 31 % 1018,1 hPa 0,0 l/m 1,0 km/h (0 Bft) 0 min 7,5 km/h (2 Bft)
03.08.2009 15:40 23,2 C 21,3 C 2,1 UV-I 1,2 C 56 % 52 % 34 % 1018,1 hPa 0,0 l/m 0,7 km/h (0 Bft) 0 min 7,5 km/h (2 Bft)
03.08.2009 15:42 23,2 C 21,3 C 2,8 UV-I 1,2 C 56 % 53 % 34 % 1018,1 hPa 0,0 l/m 1,0 km/h (0 Bft) 0 min 3,8 km/h (1 Bft)
03.08.2009 15:44 23,2 C 21,3 C 2,8 UV-I 1,2 C 56 % 53 % 34 % 1018,1 hPa 0,0 l/m 1,0 km/h (0 Bft) 0 min 0,0 km/h (0 Bft)
03.08.2009 15:46 23,2 C 21,5 C 2,8 UV-I 1,2 C 56 % 53 % 34 % 1018,1 hPa 0,0 l/m 1,0 km/h (0 Bft) 0 min 0,0 km/h (0 Bft)
03.08.2009 15:48 23,2 C 21,4 C 2,7 UV-I 1,3 C 56 % 54 % 37 % 1018,1 hPa 0,0 l/m 1,0 km/h (0 Bft) 0 min 0,0 km/h (0 Bft)
03.08.2009 15:50 23,2 C 21,5 C 2,7 UV-I 1,6 C 56 % 54 % 46 % 1018,1 hPa 0,0 l/m 0,5 km/h (0 Bft) 0 min 0,0 km/h (0 Bft)
03.08.2009 15:52 23,2 C 21,5 C 3,6 UV-I 2,0 C 56 % 54 % 57 % 1018,1 hPa 0,0 l/m 0,2 km/h (0 Bft) 0 min 0,0 km/h (0 Bft)
03.08.2009 15:54 23,2 C 21,7 C 3,6 UV-I 2,0 C 56 % 54 % 57 % 1018,1 hPa 0,0 l/m 0,0 km/h (0 Bft) 0 min 0,0 km/h (0 Bft)
03.08.2009 15:56 23,2 C 21,6 C 3,6 UV-I 2,3 C 56 % 53 % 66 % 1018,1 hPa 0,0 l/m 0,0 km/h (0 Bft) 0 min 0,0 km/h (0 Bft)
03.08.2009 15:58 23,2 C 21,7 C 3,0 UV-I 2,3 C 56 % 53 % 66 % 1018,1 hPa 0,0 l/m 0,0 km/h (0 Bft) 0 min 0,0 km/h (0 Bft)
03.08.2009 16:00 23,2 C 21,8 C 3,0 UV-I 2,2 C 56 % 54 % 63 % 1018,1 hPa 0,0 l/m 0,7 km/h (0 Bft) 0 min 7,2 km/h (2 Bft)
03.08.2009 16:02 23,2 C 21,8 C 5,0 UV-I 2,5 C 56 % 55 % 71 % 1018,1 hPa 0,0 l/m 1,2 km/h (1 Bft) 0 min 7,2 km/h (2 Bft)
03.08.2009 16:04 23,3 C 21,9 C 5,0 UV-I 2,6 C 56 % 55 % 74 % 1018,1 hPa 0,0 l/m 1,7 km/h (1 Bft) 0 min 4,3 km/h (1 Bft)
03.08.2009 16:10 23,2 C 22,0 C 3,1 UV-I 2,1 C 56 % 54 % 60 % 1018,1 hPa 0,0 l/m 1,4 km/h (1 Bft) 0 min 0,0 km/h (0 Bft)
03.08.2009 16:12 23,2 C 22,0 C 2,3 UV-I 1,8 C 56 % 55 % 51 % 1018,1 hPa 0,0 l/m 0,7 km/h (0 Bft) 0 min 0,0 km/h (0 Bft)
03.08.2009 16:14 23,2 C 22,0 C 2,3 UV-I 1,5 C 56 % 55 % 43 % 1018,1 hPa 0,0 l/m 0,2 km/h (0 Bft) 0 min 0,0 km/h (0 Bft)
03.08.2009 16:16 23,4 C 22,0 C 2,3 UV-I 1,4 C 56 % 56 % 40 % 1018,0 hPa 0,0 l/m 0,2 km/h (0 Bft) 0 min 0,0 km/h (0 Bft)
03.08.2009 16:18 23,2 C 22,0 C 2,3 UV-I 1,4 C 56 % 56 % 40 % 1018,0 hPa 0,0 l/m 0,2 km/h (0 Bft) 0 min 0,0 km/h (0 Bft)
03.08.2009 16:22 23,4 C 22,2 C 7,3 UV-I 2,4 C 56 % 57 % 69 % 1018,0 hPa 0,0 l/m 1,0 km/h (0 Bft) 0 min 2,6 km/h (1 Bft)
03.08.2009 16:26 23,4 C 22,5 C 7,3 UV-I 3,8 C 55 % 54 % 100 % 1018,0 hPa 0,0 l/m 1,2 km/h (1 Bft) 2 min 4,1 km/h (1 Bft)
03.08.2009 16:28 23,5 C 22,7 C 7,3 UV-I 4,1 C 55 % 54 % 100 % 1018,0 hPa 0,0 l/m 1,4 km/h (1 Bft) 2 min 4,1 km/h (1 Bft)
03.08.2009 16:30 23,5 C 22,7 C 7,3 UV-I 4,5 C 55 % 54 % 100 % 1018,0 hPa 0,0 l/m 1,2 km/h (1 Bft) 2 min 4,1 km/h (1 Bft)
03.08.2009 16:32 23,5 C 22,9 C 7,2 UV-I 4,8 C 55 % 54 % 100 % 1018,0 hPa 0,0 l/m 0,7 km/h (0 Bft) 2 min 4,1 km/h (1 Bft)
03.08.2009 16:34 23,6 C 22,8 C 7,2 UV-I 5,0 C 55 % 52 % 100 % 1018,0 hPa 0,0 l/m 0,7 km/h (0 Bft) 2 min 4,1 km/h (1 Bft)
03.08.2009 16:38 23,6 C 22,9 C 7,2 UV-I 4,0 C 55 % 52 % 100 % 1017,4 hPa 0,0 l/m 0,5 km/h (0 Bft) 2 min 0,0 km/h (0 Bft)
03.08.2009 16:40 23,6 C 22,9 C 7,2 UV-I 3,5 C 55 % 52 % 100 % 1017,4 hPa 0,0 l/m 0,2 km/h (0 Bft) 2 min 0,0 km/h (0 Bft)
03.08.2009 16:44 23,6 C 22,8 C 2,5 UV-I 2,8 C 55 % 50 % 80 % 1017,4 hPa 0,0 l/m 0,0 km/h (0 Bft) 0 min 0,0 km/h (0 Bft)
03.08.2009 16:48 23,7 C 23,0 C 8,1 UV-I 3,8 C 55 % 51 % 100 % 1017,4 hPa 0,0 l/m 0,0 km/h (0 Bft) 2 min 0,0 km/h (0 Bft)
03.08.2009 16:50 23,8 C 23,2 C 8,1 UV-I 4,5 C 55 % 48 % 100 % 1017,4 hPa 0,0 l/m 0,2 km/h (0 Bft) 2 min 2,6 km/h (1 Bft)
03.08.2009 16:52 23,8 C 23,2 C 6,4 UV-I 4,7 C 55 % 48 % 100 % 1017,4 hPa 0,0 l/m 0,5 km/h (0 Bft) 2 min 2,6 km/h (1 Bft)
03.08.2009 16:54 23,8 C 23,2 C 6,4 UV-I 4,6 C 55 % 47 % 100 % 1017,4 hPa 0,0 l/m 1,0 km/h (0 Bft) 2 min 5,3 km/h (1 Bft)
03.08.2009 16:58 23,9 C 23,3 C 5,6 UV-I 4,0 C 55 % 46 % 100 % 1017,1 hPa 0,0 l/m 2,2 km/h (1 Bft) 2 min 5,3 km/h (1 Bft)
03.08.2009 17:00 23,9 C 23,2 C 5,6 UV-I 3,6 C 54 % 46 % 100 % 1017,1 hPa 0,0 l/m 1,9 km/h (1 Bft) 2 min 2,6 km/h (1 Bft)
03.08.2009 17:02 24,0 C 23,3 C 4,0 UV-I 3,4 C 54 % 46 % 97 % 1017,1 hPa 0,0 l/m 2,2 km/h (1 Bft) 2 min 7,2 km/h (2 Bft)
03.08.2009 17:04 24,0 C 23,3 C 4,0 UV-I 3,7 C 55 % 45 % 100 % 1017,1 hPa 0,0 l/m 1,9 km/h (1 Bft) 2 min 7,2 km/h (2 Bft)
03.08.2009 17:06 24,0 C 23,3 C 4,0 UV-I 4,2 C 54 % 44 % 100 % 1017,1 hPa 0,0 l/m 1,4 km/h (1 Bft) 2 min 5,5 km/h (1 Bft)
03.08.2009 17:08 24,0 C 23,3 C 2,7 UV-I 4,6 C 54 % 45 % 100 % 1017,1 hPa 0,0 l/m 1,4 km/h (1 Bft) 2 min 5,5 km/h (1 Bft)
03.08.2009 17:10 24,1 C 23,4 C 2,7 UV-I 4,9 C 54 % 44 % 100 % 1017,1 hPa 0,0 l/m 1,9 km/h (1 Bft) 2 min 8,4 km/h (2 Bft)
03.08.2009 17:12 24,2 C 23,4 C 2,8 UV-I 5,2 C 54 % 44 % 100 % 1017,1 hPa 0,0 l/m 2,6 km/h (1 Bft) 2 min 0,0 km/h (0 Bft)
03.08.2009 17:14 24,2 C 23,5 C 2,8 UV-I 5,4 C 54 % 44 % 100 % 1017,1 hPa 0,0 l/m 2,9 km/h (1 Bft) 2 min 2,9 km/h (1 Bft)
03.08.2009 17:16 24,2 C 23,5 C 2,8 UV-I 5,6 C 54 % 43 % 100 % 1017,1 hPa 0,0 l/m 3,1 km/h (1 Bft) 2 min 5,1 km/h (1 Bft)
03.08.2009 17:18 24,2 C 23,5 C 2,7 UV-I 5,7 C 54 % 43 % 100 % 1017,1 hPa 0,0 l/m 3,4 km/h (1 Bft) 2 min 5,1 km/h (1 Bft)
03.08.2009 17:20 24,3 C 23,3 C 2,7 UV-I 5,8 C 54 % 44 % 100 % 1017,1 hPa 0,0 l/m 2,9 km/h (1 Bft) 2 min 2,9 km/h (1 Bft)
03.08.2009 17:22 24,2 C 23,5 C 2,8 UV-I 5,9 C 54 % 44 % 100 % 1017,1 hPa 0,0 l/m 1,9 km/h (1 Bft) 2 min 0,0 km/h (0 Bft)
03.08.2009 17:26 24,4 C 23,5 C 2,8 UV-I 6,6 C 53 % 44 % 100 % 1017,1 hPa 0,0 l/m 2,2 km/h (1 Bft) 2 min 6,3 km/h (2 Bft)
03.08.2009 17:28 24,4 C 23,6 C 2,8 UV-I 6,5 C 53 % 44 % 100 % 1017,1 hPa 0,0 l/m 2,2 km/h (1 Bft) 2 min 6,3 km/h (2 Bft)
03.08.2009 17:30 24,5 C 23,5 C 2,8 UV-I 6,4 C 53 % 44 % 100 % 1017,1 hPa 0,0 l/m 2,2 km/h (1 Bft) 2 min 5,5 km/h (1 Bft)
03.08.2009 17:32 24,5 C 23,6 C 2,8 UV-I 6,1 C 53 % 44 % 100 % 1017,1 hPa 0,0 l/m 2,6 km/h (1 Bft) 2 min 12,5 km/h (3 Bft)
03.08.2009 17:36 24,6 C 23,6 C 2,8 UV-I 5,4 C 53 % 43 % 100 % 1017,7 hPa 0,0 l/m 3,8 km/h (1 Bft) 2 min 9,6 km/h (2 Bft)
03.08.2009 17:38 24,6 C 23,6 C 2,5 UV-I 4,7 C 52 % 43 % 100 % 1017,7 hPa 0,0 l/m 3,8 km/h (1 Bft) 2 min 9,6 km/h (2 Bft)
03.08.2009 17:40 24,7 C 23,5 C 2,5 UV-I 3,8 C 52 % 43 % 100 % 1017,7 hPa 0,0 l/m 4,3 km/h (1 Bft) 2 min 6,7 km/h (2 Bft)
03.08.2009 17:42 24,7 C 23,5 C 2,3 UV-I 2,8 C 52 % 43 % 80 % 1017,7 hPa 0,0 l/m 3,6 km/h (1 Bft) 0 min 14,9 km/h (3 Bft)
03.08.2009 17:44 24,7 C 23,3 C 2,3 UV-I 2,4 C 52 % 42 % 69 % 1017,7 hPa 0,0 l/m 3,4 km/h (1 Bft) 0 min 5,5 km/h (1 Bft)
03.08.2009 17:46 24,7 C 23,2 C 2,3 UV-I 2,6 C 52 % 43 % 74 % 1017,7 hPa 0,0 l/m 2,9 km/h (1 Bft) 0 min 6,5 km/h (2 Bft)
03.08.2009 17:48 24,7 C 23,2 C 2,2 UV-I 2,9 C 52 % 43 % 83 % 1017,7 hPa 0,0 l/m 2,6 km/h (1 Bft) 2 min 6,3 km/h (2 Bft)
03.08.2009 17:50 24,8 C 23,2 C 2,2 UV-I 3,3 C 52 % 43 % 94 % 1017,7 hPa 0,0 l/m 2,4 km/h (1 Bft) 2 min 0,0 km/h (0 Bft)
03.08.2009 17:52 24,8 C 23,3 C 2,2 UV-I 3,8 C 51 % 44 % 100 % 1017,7 hPa 0,0 l/m 1,9 km/h (1 Bft) 2 min 0,0 km/h (0 Bft)
03.08.2009 17:54 24,8 C 23,5 C 2,2 UV-I 4,1 C 51 % 43 % 100 % 1017,7 hPa 0,0 l/m 1,7 km/h (1 Bft) 2 min 5,3 km/h (1 Bft)
03.08.2009 17:56 24,9 C 23,5 C 2,2 UV-I 4,6 C 51 % 43 % 100 % 1017,7 hPa 0,0 l/m 1,9 km/h (1 Bft) 2 min 3,4 km/h (1 Bft)
03.08.2009 18:00 24,9 C 23,4 C 2,3 UV-I 4,8 C 51 % 43 % 100 % 1017,7 hPa 0,0 l/m 2,4 km/h (1 Bft) 2 min 8,2 km/h (2 Bft)
03.08.2009 18:02 24,9 C 23,3 C 2,2 UV-I 4,2 C 51 % 43 % 100 % 1017,7 hPa 0,0 l/m 3,1 km/h (1 Bft) 2 min 6,3 km/h (2 Bft)
03.08.2009 18:04 24,9 C 23,3 C 2,2 UV-I 3,7 C 51 % 43 % 100 % 1017,7 hPa 0,0 l/m 3,6 km/h (1 Bft) 2 min 4,1 km/h (1 Bft)
03.08.2009 18:06 24,9 C 23,3 C 2,2 UV-I 3,5 C 51 % 44 % 100 % 1017,7 hPa 0,0 l/m 3,1 km/h (1 Bft) 2 min 4,1 km/h (1 Bft)
03.08.2009 18:08 24,9 C 23,2 C 2,1 UV-I 3,7 C 51 % 43 % 100 % 1017,7 hPa 0,0 l/m 3,4 km/h (1 Bft) 2 min 0,0 km/h (0 Bft)
03.08.2009 18:09 25,0 C 23,1 C 2,1 UV-I 4,0 C 51 % 44 % 100 % 1017,7 hPa 0,0 l/m 3,1 km/h (1 Bft) 1 min 3,6 km/h (1 Bft)
03.08.2009 18:14 25,0 C 23,0 C 2,0 UV-I 4,3 C 51 % 43 % 100 % 1017,7 hPa 0,0 l/m 4,1 km/h (1 Bft) 2 min 5,3 km/h (1 Bft)
03.08.2009 18:15 25,0 C 22,8 C 2,0 UV-I 4,5 C 51 % 44 % 100 % 1018,0 hPa 0,0 l/m 3,8 km/h (1 Bft) 1 min 2,4 km/h (1 Bft)
03.08.2009 18:18 25,0 C 22,8 C 2,0 UV-I 4,5 C 51 % 44 % 100 % 1018,0 hPa 0,0 l/m 3,1 km/h (1 Bft) 2 min 2,4 km/h (1 Bft)
03.08.2009 18:20 25,0 C 22,9 C 2,0 UV-I 3,8 C 51 % 44 % 100 % 1018,0 hPa 0,0 l/m 2,6 km/h (1 Bft) 2 min 3,1 km/h (1 Bft)
03.08.2009 18:22 25,0 C 22,8 C 1,9 UV-I 3,5 C 51 % 44 % 100 % 1018,0 hPa 0,0 l/m 2,2 km/h (1 Bft) 2 min 3,1 km/h (1 Bft)
03.08.2009 18:24 25,0 C 22,7 C 1,9 UV-I 3,2 C 50 % 45 % 91 % 1018,0 hPa 0,0 l/m 1,2 km/h (1 Bft) 2 min 2,4 km/h (1 Bft)
03.08.2009 18:26 25,0 C 22,7 C 1,9 UV-I 2,6 C 51 % 45 % 74 % 1018,0 hPa 0,0 l/m 0,5 km/h (0 Bft) 0 min 0,0 km/h (0 Bft)
03.08.2009 18:28 25,0 C 22,7 C 1,6 UV-I 2,3 C 50 % 45 % 66 % 1018,0 hPa 0,0 l/m 0,5 km/h (0 Bft) 0 min 0,0 km/h (0 Bft)
03.08.2009 18:30 25,0 C 22,7 C 1,6 UV-I 2,0 C 51 % 46 % 57 % 1018,0 hPa 0,0 l/m 0,2 km/h (0 Bft) 0 min 0,0 km/h (0 Bft)
03.08.2009 18:32 25,0 C 22,7 C 1,6 UV-I 1,8 C 51 % 45 % 51 % 1018,0 hPa 0,0 l/m 0,5 km/h (0 Bft) 0 min 6,0 km/h (2 Bft)
03.08.2009 18:34 25,0 C 22,7 C 1,6 UV-I 1,4 C 51 % 45 % 40 % 1018,0 hPa 0,0 l/m 0,7 km/h (0 Bft) 0 min 6,0 km/h (2 Bft)
03.08.2009 18:36 25,0 C 22,6 C 1,6 UV-I 1,3 C 51 % 45 % 37 % 1018,2 hPa 0,0 l/m 0,7 km/h (0 Bft) 0 min 0,0 km/h (0 Bft)
03.08.2009 18:38 25,0 C 22,5 C 1,7 UV-I 1,3 C 51 % 44 % 37 % 1018,2 hPa 0,0 l/m 1,4 km/h (1 Bft) 0 min 6,5 km/h (2 Bft)
03.08.2009 18:40 25,0 C 22,4 C 1,7 UV-I 1,2 C 51 % 44 % 34 % 1018,2 hPa 0,0 l/m 1,9 km/h (1 Bft) 0 min 6,5 km/h (2 Bft)
03.08.2009 18:42 24,9 C 22,4 C 1,7 UV-I 1,0 C 51 % 43 % 29 % 1018,2 hPa 0,0 l/m 1,9 km/h (1 Bft) 0 min 3,1 km/h (1 Bft)
03.08.2009 18:44 24,9 C 22,3 C 1,7 UV-I 0,9 C 51 % 45 % 26 % 1018,2 hPa 0,0 l/m 1,4 km/h (1 Bft) 0 min 0,0 km/h (0 Bft)
03.08.2009 18:46 24,9 C 22,3 C 1,7 UV-I 0,8 C 51 % 45 % 23 % 1018,2 hPa 0,0 l/m 1,4 km/h (1 Bft) 0 min 0,0 km/h (0 Bft)
03.08.2009 18:48 24,9 C 22,2 C 1,7 UV-I 0,7 C 51 % 45 % 20 % 1018,2 hPa 0,0 l/m 1,2 km/h (1 Bft) 0 min 2,6 km/h (1 Bft)
03.08.2009 18:50 24,9 C 22,2 C 1,7 UV-I 0,7 C 51 % 45 % 20 % 1018,2 hPa 0,0 l/m 1,0 km/h (0 Bft) 0 min 3,4 km/h (1 Bft)
03.08.2009 18:52 24,9 C 22,3 C 1,6 UV-I 0,5 C 51 % 45 % 14 % 1018,2 hPa 0,0 l/m 1,2 km/h (1 Bft) 0 min 7,0 km/h (2 Bft)
03.08.2009 18:54 24,8 C 22,2 C 1,6 UV-I 0,5 C 51 % 45 % 14 % 1018,2 hPa 0,0 l/m 1,4 km/h (1 Bft) 0 min 7,0 km/h (2 Bft)
03.08.2009 18:56 24,8 C 22,2 C 1,6 UV-I 0,5 C 51 % 46 % 14 % 1018,1 hPa 0,0 l/m 1,4 km/h (1 Bft) 0 min 0,0 km/h (0 Bft)
03.08.2009 18:58 24,8 C 22,1 C 1,6 UV-I 0,5 C 51 % 47 % 14 % 1018,1 hPa 0,0 l/m 1,9 km/h (1 Bft) 0 min 4,1 km/h (1 Bft)
03.08.2009 19:00 24,8 C 22,1 C 1,6 UV-I 0,4 C 51 % 47 % 11 % 1018,1 hPa 0,0 l/m 1,9 km/h (1 Bft) 0 min 4,1 km/h (1 Bft)
03.08.2009 19:02 24,8 C 22,1 C 1,5 UV-I 0,3 C 51 % 46 % 9 % 1018,1 hPa 0,0 l/m 2,2 km/h (1 Bft) 0 min 9,4 km/h (2 Bft)
03.08.2009 19:04 24,8 C 22,0 C 1,5 UV-I 0,3 C 51 % 45 % 9 % 1018,1 hPa 0,0 l/m 2,2 km/h (1 Bft) 0 min 9,4 km/h (2 Bft)
03.08.2009 19:06 24,8 C 22,0 C 1,5 UV-I 0,2 C 51 % 46 % 6 % 1018,1 hPa 0,0 l/m 2,4 km/h (1 Bft) 0 min 6,7 km/h (2 Bft)
03.08.2009 19:08 24,8 C 22,0 C 1,5 UV-I 0,1 C 51 % 45 % 3 % 1018,1 hPa 0,0 l/m 2,6 km/h (1 Bft) 0 min 2,4 km/h (1 Bft)
03.08.2009 19:10 24,7 C 21,8 C 1,5 UV-I 0,3 C 51 % 46 % 9 % 1018,1 hPa 0,0 l/m 2,4 km/h (1 Bft) 0 min 4,8 km/h (1 Bft)
03.08.2009 19:12 24,7 C 21,9 C 1,4 UV-I 0,1 C 51 % 46 % 3 % 1018,1 hPa 0,0 l/m 2,9 km/h (1 Bft) 0 min 4,8 km/h (1 Bft)
03.08.2009 19:14 24,7 C 21,9 C 1,4 UV-I 0,0 C 51 % 45 % 0 % 1018,1 hPa 0,0 l/m 2,4 km/h (1 Bft) 0 min 7,9 km/h (2 Bft)
03.08.2009 19:16 24,7 C 21,9 C 1,4 UV-I 0,0 C 51 % 46 % 0 % 1018,2 hPa 0,0 l/m 2,4 km/h (1 Bft) 0 min 7,9 km/h (2 Bft)
03.08.2009 19:18 24,6 C 21,9 C 1,2 UV-I 0,0 C 51 % 46 % 0 % 1018,2 hPa 0,0 l/m 2,6 km/h (1 Bft) 0 min 4,6 km/h (1 Bft)
03.08.2009 19:20 24,6 C 21,8 C 1,2 UV-I 0,0 C 51 % 45 % 0 % 1018,2 hPa 0,0 l/m 2,4 km/h (1 Bft) 0 min 6,3 km/h (2 Bft)
03.08.2009 19:22 24,6 C 21,7 C 1,2 UV-I 0,0 C 51 % 45 % 0 % 1018,2 hPa 0,0 l/m 2,4 km/h (1 Bft) 0 min 6,3 km/h (2 Bft)
03.08.2009 19:24 24,6 C 21,6 C 1,2 UV-I 0,0 C 51 % 45 % 0 % 1018,2 hPa 0,0 l/m 2,4 km/h (1 Bft) 0 min 5,1 km/h (1 Bft)
03.08.2009 19:26 24,6 C 21,6 C 1,2 UV-I 0,0 C 51 % 46 % 0 % 1018,2 hPa 0,0 l/m 1,2 km/h (1 Bft) 0 min 0,0 km/h (0 Bft)
03.08.2009 19:28 24,6 C 21,6 C 1,1 UV-I 0,0 C 51 % 46 % 0 % 1018,2 hPa 0,0 l/m 1,7 km/h (1 Bft) 0 min 4,6 km/h (1 Bft)
03.08.2009 19:30 24,5 C 21,6 C 1,1 UV-I 0,0 C 51 % 46 % 0 % 1018,2 hPa 0,0 l/m 1,7 km/h (1 Bft) 0 min 4,6 km/h (1 Bft)
03.08.2009 19:32 24,5 C 21,6 C 1,0 UV-I 0,0 C 51 % 46 % 0 % 1018,2 hPa 0,0 l/m 1,2 km/h (1 Bft) 0 min 0,0 km/h (0 Bft)
03.08.2009 19:34 24,5 C 21,5 C 1,0 UV-I 0,0 C 51 % 47 % 0 % 1018,2 hPa 0,0 l/m 0,7 km/h (0 Bft) 0 min 0,0 km/h (0 Bft)
03.08.2009 19:36 24,5 C 21,5 C 1,0 UV-I 0,0 C 51 % 47 % 0 % 1018,2 hPa 0,0 l/m 0,7 km/h (0 Bft) 0 min 0,0 km/h (0 Bft)
03.08.2009 19:38 24,5 C 21,4 C 1,0 UV-I 0,0 C 51 % 46 % 0 % 1018,2 hPa 0,0 l/m 1,0 km/h (0 Bft) 0 min 3,1 km/h (1 Bft)
03.08.2009 19:40 24,4 C 21,5 C 1,0 UV-I 0,0 C 51 % 46 % 0 % 1018,2 hPa 0,0 l/m 0,5 km/h (0 Bft) 0 min 3,1 km/h (1 Bft)
03.08.2009 19:42 24,4 C 21,3 C 0,9 UV-I 0,0 C 51 % 46 % 0 % 1018,2 hPa 0,0 l/m 0,7 km/h (0 Bft) 0 min 3,1 km/h (1 Bft)
03.08.2009 19:44 24,4 C 21,4 C 0,9 UV-I 0,0 C 51 % 46 % 0 % 1018,2 hPa 0,0 l/m 1,2 km/h (1 Bft) 0 min 3,8 km/h (1 Bft)
03.08.2009 19:46 24,4 C 21,3 C 0,9 UV-I 0,0 C 51 % 47 % 0 % 1018,2 hPa 0,0 l/m 1,4 km/h (1 Bft) 0 min 3,8 km/h (1 Bft)
03.08.2009 19:48 24,4 C 21,2 C 0,8 UV-I 0,0 C 52 % 48 % 0 % 1018,2 hPa 0,0 l/m 1,2 km/h (1 Bft) 0 min 0,0 km/h (0 Bft)
03.08.2009 19:50 24,4 C 21,3 C 0,8 UV-I 0,0 C 52 % 48 % 0 % 1018,2 hPa 0,0 l/m 1,0 km/h (0 Bft) 0 min 0,0 km/h (0 Bft)
03.08.2009 19:52 24,4 C 21,2 C 0,8 UV-I 0,0 C 52 % 48 % 0 % 1018,2 hPa 0,0 l/m 1,0 km/h (0 Bft) 0 min 2,9 km/h (1 Bft)
03.08.2009 19:54 24,4 C 21,2 C 0,8 UV-I 0,0 C 52 % 47 % 0 % 1018,2 hPa 0,0 l/m 0,5 km/h (0 Bft) 0 min 2,9 km/h (1 Bft)
03.08.2009 19:56 24,4 C 21,1 C 0,8 UV-I 0,0 C 52 % 47 % 0 % 1018,3 hPa 0,0 l/m 0,2 km/h (0 Bft) 0 min 0,0 km/h (0 Bft)
03.08.2009 20:00 24,3 C 21,0 C 0,7 UV-I 0,0 C 51 % 48 % 0 % 1018,3 hPa 0,0 l/m 0,2 km/h (0 Bft) 0 min 0,0 km/h (0 Bft)
03.08.2009 20:02 24,3 C 20,9 C 0,6 UV-I 0,0 C 51 % 48 % 0 % 1018,3 hPa 0,0 l/m 0,2 km/h (0 Bft) 0 min 0,0 km/h (0 Bft)
03.08.2009 20:04 24,3 C 20,9 C 0,6 UV-I 0,0 C 51 % 49 % 0 % 1018,3 hPa 0,0 l/m 0,0 km/h (0 Bft) 0 min 0,0 km/h (0 Bft)
03.08.2009 20:06 24,2 C 20,8 C 0,6 UV-I 0,0 C 50 % 49 % 0 % 1018,3 hPa 0,0 l/m 0,0 km/h (0 Bft) 0 min 0,0 km/h (0 Bft)
03.08.2009 20:08 24,2 C 20,8 C 0,5 UV-I 0,0 C 50 % 50 % 0 % 1018,3 hPa 0,0 l/m 0,0 km/h (0 Bft) 0 min 0,0 km/h (0 Bft)
03.08.2009 20:10 24,2 C 20,9 C 0,5 UV-I 0,0 C 50 % 51 % 0 % 1018,3 hPa 0,0 l/m 0,0 km/h (0 Bft) 0 min 0,0 km/h (0 Bft)
03.08.2009 20:12 24,1 C 20,8 C 0,4 UV-I 0,0 C 50 % 52 % 0 % 1018,3 hPa 0,0 l/m 0,0 km/h (0 Bft) 0 min 0,0 km/h (0 Bft)
03.08.2009 20:14 24,1 C 20,7 C 0,4 UV-I 0,0 C 50 % 52 % 0 % 1018,3 hPa 0,0 l/m 0,0 km/h (0 Bft) 0 min 0,0 km/h (0 Bft)
03.08.2009 20:16 24,1 C 20,7 C 0,4 UV-I 0,0 C 50 % 51 % 0 % 1018,1 hPa 0,0 l/m 0,0 km/h (0 Bft) 0 min 0,0 km/h (0 Bft)
03.08.2009 20:18 24,0 C 20,6 C 0,5 UV-I 0,0 C 50 % 50 % 0 % 1018,1 hPa 0,0 l/m 0,0 km/h (0 Bft) 0 min 0,0 km/h (0 Bft)
03.08.2009 20:20 24,0 C 20,6 C 0,5 UV-I 0,0 C 50 % 50 % 0 % 1018,1 hPa 0,0 l/m 0,0 km/h (0 Bft) 0 min 0,0 km/h (0 Bft)
03.08.2009 20:22 24,0 C 20,6 C 0,3 UV-I 0,0 C 50 % 50 % 0 % 1018,1 hPa 0,0 l/m 0,0 km/h (0 Bft) 0 min 0,0 km/h (0 Bft)
03.08.2009 20:24 24,0 C 20,6 C 0,3 UV-I 0,0 C 50 % 51 % 0 % 1018,1 hPa 0,0 l/m 0,0 km/h (0 Bft) 0 min 0,0 km/h (0 Bft)
03.08.2009 20:26 24,0 C 20,5 C 0,3 UV-I 0,0 C 50 % 51 % 0 % 1018,1 hPa 0,0 l/m 0,0 km/h (0 Bft) 0 min 0,0 km/h (0 Bft)
03.08.2009 20:28 24,0 C 20,4 C 0,2 UV-I 0,0 C 50 % 52 % 0 % 1018,1 hPa 0,0 l/m 0,0 km/h (0 Bft) 0 min 0,0 km/h (0 Bft)
03.08.2009 20:30 24,0 C 20,5 C 0,2 UV-I 0,0 C 50 % 53 % 0 % 1018,1 hPa 0,0 l/m 0,0 km/h (0 Bft) 0 min 0,0 km/h (0 Bft)
03.08.2009 20:32 23,9 C 20,4 C 0,3 UV-I 0,0 C 50 % 53 % 0 % 1018,1 hPa 0,0 l/m 0,0 km/h (0 Bft) 0 min 0,0 km/h (0 Bft)
03.08.2009 20:34 23,9 C 20,3 C 0,3 UV-I 0,0 C 50 % 54 % 0 % 1018,1 hPa 0,0 l/m 0,0 km/h (0 Bft) 0 min 0,0 km/h (0 Bft)
03.08.2009 20:36 23,8 C 20,3 C 0,3 UV-I 0,0 C 50 % 54 % 0 % 1018,3 hPa 0,0 l/m 0,0 km/h (0 Bft) 0 min 0,0 km/h (0 Bft)
03.08.2009 20:38 23,8 C 20,2 C 0,1 UV-I 0,0 C 50 % 55 % 0 % 1018,3 hPa 0,0 l/m 0,0 km/h (0 Bft) 0 min 0,0 km/h (0 Bft)
03.08.2009 20:40 23,8 C 20,1 C 0,1 UV-I 0,0 C 50 % 55 % 0 % 1018,3 hPa 0,0 l/m 0,0 km/h (0 Bft) 0 min 0,0 km/h (0 Bft)
03.08.2009 20:42 23,8 C 20,1 C 0,1 UV-I 0,0 C 50 % 56 % 0 % 1018,3 hPa 0,0 l/m 0,0 km/h (0 Bft) 0 min 0,0 km/h (0 Bft)
03.08.2009 20:44 23,8 C 20,0 C 0,1 UV-I 0,0 C 51 % 56 % 0 % 1018,3 hPa 0,0 l/m 0,0 km/h (0 Bft) 0 min 0,0 km/h (0 Bft)
03.08.2009 20:46 23,7 C 20,0 C 0,1 UV-I 0,0 C 51 % 56 % 0 % 1018,3 hPa 0,0 l/m 0,0 km/h (0 Bft) 0 min 0,0 km/h (0 Bft)
03.08.2009 20:48 23,7 C 19,9 C 0,1 UV-I 0,0 C 51 % 56 % 0 % 1018,3 hPa 0,0 l/m 0,0 km/h (0 Bft) 0 min 0,0 km/h (0 Bft)
03.08.2009 20:50 23,7 C 19,9 C 0,1 UV-I 0,0 C 51 % 57 % 0 % 1018,3 hPa 0,0 l/m 0,0 km/h (0 Bft) 0 min 0,0 km/h (0 Bft)
03.08.2009 20:52 23,6 C 19,7 C 0,1 UV-I 0,0 C 51 % 57 % 0 % 1018,3 hPa 0,0 l/m 0,0 km/h (0 Bft) 0 min 0,0 km/h (0 Bft)
03.08.2009 20:54 23,6 C 19,6 C 0,1 UV-I 0,0 C 51 % 57 % 0 % 1018,3 hPa 0,0 l/m 0,0 km/h (0 Bft) 0 min 0,0 km/h (0 Bft)
03.08.2009 20:56 23,6 C 19,6 C 0,1 UV-I 0,0 C 51 % 57 % 0 % 1018,6 hPa 0,0 l/m 0,0 km/h (0 Bft) 0 min 0,0 km/h (0 Bft)
03.08.2009 20:58 23,6 C 19,5 C 0,0 UV-I 0,0 C 51 % 58 % 0 % 1018,6 hPa 0,0 l/m 0,0 km/h (0 Bft) 0 min 0,0 km/h (0 Bft)
03.08.2009 21:00 23,6 C 19,5 C 0,0 UV-I 0,0 C 51 % 58 % 0 % 1018,6 hPa 0,0 l/m 0,0 km/h (0 Bft) 0 min 0,0 km/h (0 Bft)
03.08.2009 21:02 23,5 C 19,3 C 0,0 UV-I 0,0 C 51 % 58 % 0 % 1018,6 hPa 0,0 l/m 0,0 km/h (0 Bft) 0 min 0,0 km/h (0 Bft)
03.08.2009 21:04 23,5 C 19,2 C 0,0 UV-I 0,0 C 51 % 59 % 0 % 1018,6 hPa 0,0 l/m 0,0 km/h (0 Bft) 0 min 0,0 km/h (0 Bft)
03.08.2009 21:06 23,5 C 19,2 C 0,0 UV-I 0,0 C 51 % 60 % 0 % 1018,6 hPa 0,0 l/m 0,0 km/h (0 Bft) 0 min 0,0 km/h (0 Bft)
03.08.2009 21:08 23,4 C 19,0 C 0,0 UV-I 0,0 C 51 % 60 % 0 % 1018,6 hPa 0,0 l/m 0,0 km/h (0 Bft) 0 min 0,0 km/h (0 Bft)
03.08.2009 21:10 23,4 C 19,1 C 0,0 UV-I 0,0 C 51 % 60 % 0 % 1018,6 hPa 0,0 l/m 0,0 km/h (0 Bft) 0 min 0,0 km/h (0 Bft)
03.08.2009 21:12 23,4 C 18,9 C 0,0 UV-I 0,0 C 51 % 61 % 0 % 1018,6 hPa 0,0 l/m 0,0 km/h (0 Bft) 0 min 0,0 km/h (0 Bft)
03.08.2009 21:16 23,4 C 18,8 C 0,0 UV-I 0,0 C 51 % 61 % 0 % 1018,8 hPa 0,0 l/m 0,0 km/h (0 Bft) 0 min 0,0 km/h (0 Bft)
03.08.2009 21:18 23,4 C 18,7 C 0,0 UV-I 0,0 C 51 % 61 % 0 % 1018,8 hPa 0,0 l/m 0,0 km/h (0 Bft) 0 min 0,0 km/h (0 Bft)
03.08.2009 21:20 23,2 C 18,7 C 0,0 UV-I 0,0 C 51 % 61 % 0 % 1018,8 hPa 0,0 l/m 0,0 km/h (0 Bft) 0 min 0,0 km/h (0 Bft)
03.08.2009 21:22 23,3 C 18,5 C 0,0 UV-I 0,0 C 52 % 61 % 0 % 1018,8 hPa 0,0 l/m 0,0 km/h (0 Bft) 0 min 0,0 km/h (0 Bft)
03.08.2009 21:24 23,3 C 18,4 C 0,0 UV-I 0,0 C 51 % 61 % 0 % 1018,8 hPa 0,0 l/m 0,0 km/h (0 Bft) 0 min 0,0 km/h (0 Bft)
03.08.2009 21:26 23,2 C 18,5 C 0,0 UV-I 0,0 C 52 % 62 % 0 % 1018,8 hPa 0,0 l/m 0,0 km/h (0 Bft) 0 min 0,0 km/h (0 Bft)
03.08.2009 21:28 23,2 C 18,3 C 0,0 UV-I 0,0 C 51 % 62 % 0 % 1018,8 hPa 0,0 l/m 0,0 km/h (0 Bft) 0 min 0,0 km/h (0 Bft)
03.08.2009 21:30 23,2 C 18,2 C 0,0 UV-I 0,0 C 52 % 61 % 0 % 1018,8 hPa 0,0 l/m 0,0 km/h (0 Bft) 0 min 0,0 km/h (0 Bft)
03.08.2009 21:32 23,2 C 18,2 C 0,0 UV-I 0,0 C 52 % 61 % 0 % 1018,8 hPa 0,0 l/m 0,0 km/h (0 Bft) 0 min 0,0 km/h (0 Bft)
03.08.2009 21:34 23,2 C 18,0 C 0,0 UV-I 0,0 C 51 % 62 % 0 % 1018,8 hPa 0,0 l/m 0,0 km/h (0 Bft) 0 min 0,0 km/h (0 Bft)
03.08.2009 21:36 23,1 C 18,0 C 0,0 UV-I 0,0 C 51 % 63 % 0 % 1019,0 hPa 0,0 l/m 0,0 km/h (0 Bft) 0 min 0,0 km/h (0 Bft)
03.08.2009 21:40 23,1 C 17,9 C 0,0 UV-I 0,0 C 52 % 64 % 0 % 1019,0 hPa 0,0 l/m 0,0 km/h (0 Bft) 0 min 0,0 km/h (0 Bft)
03.08.2009 21:42 23,1 C 17,8 C 0,0 UV-I 0,0 C 52 % 64 % 0 % 1019,0 hPa 0,0 l/m 0,0 km/h (0 Bft) 0 min 0,0 km/h (0 Bft)
03.08.2009 21:44 23,1 C 17,7 C 0,0 UV-I 0,0 C 52 % 64 % 0 % 1019,0 hPa 0,0 l/m 0,0 km/h (0 Bft) 0 min 0,0 km/h (0 Bft)
03.08.2009 21:46 23,0 C 17,6 C 0,0 UV-I 0,0 C 52 % 65 % 0 % 1019,0 hPa 0,0 l/m 0,0 km/h (0 Bft) 0 min 0,0 km/h (0 Bft)
03.08.2009 21:48 23,0 C 17,6 C 0,0 UV-I 0,0 C 52 % 65 % 0 % 1019,0 hPa 0,0 l/m 0,0 km/h (0 Bft) 0 min 0,0 km/h (0 Bft)
03.08.2009 21:50 23,0 C 17,5 C 0,0 UV-I 0,0 C 52 % 65 % 0 % 1019,0 hPa 0,0 l/m 0,0 km/h (0 Bft) 0 min 0,0 km/h (0 Bft)
03.08.2009 21:52 23,0 C 17,5 C 0,0 UV-I 0,0 C 52 % 65 % 0 % 1019,0 hPa 0,0 l/m 0,0 km/h (0 Bft) 0 min 0,0 km/h (0 Bft)
03.08.2009 21:54 22,9 C 17,3 C 0,0 UV-I 0,0 C 52 % 65 % 0 % 1019,0 hPa 0,0 l/m 0,0 km/h (0 Bft) 0 min 0,0 km/h (0 Bft)
03.08.2009 21:56 22,9 C 17,3 C 0,0 UV-I 0,0 C 52 % 66 % 0 % 1019,2 hPa 0,0 l/m 0,0 km/h (0 Bft) 0 min 0,0 km/h (0 Bft)
03.08.2009 21:58 22,9 C 17,2 C 0,0 UV-I 0,0 C 52 % 66 % 0 % 1019,2 hPa 0,0 l/m 0,0 km/h (0 Bft) 0 min 0,0 km/h (0 Bft)
03.08.2009 22:00 22,8 C 17,1 C 0,0 UV-I 0,0 C 52 % 66 % 0 % 1019,2 hPa 0,0 l/m 0,0 km/h (0 Bft) 0 min 0,0 km/h (0 Bft)
03.08.2009 22:02 22,8 C 17,1 C 0,0 UV-I 0,0 C 52 % 67 % 0 % 1019,2 hPa 0,0 l/m 0,0 km/h (0 Bft) 0 min 0,0 km/h (0 Bft)
03.08.2009 22:04 22,8 C 17,0 C 0,0 UV-I 0,0 C 52 % 67 % 0 % 1019,2 hPa 0,0 l/m 0,0 km/h (0 Bft) 0 min 0,0 km/h (0 Bft)
03.08.2009 22:06 22,8 C 16,8 C 0,0 UV-I 0,0 C 52 % 67 % 0 % 1019,2 hPa 0,0 l/m 0,0 km/h (0 Bft) 0 min 0,0 km/h (0 Bft)
03.08.2009 22:08 22,8 C 16,8 C 0,0 UV-I 0,0 C 52 % 67 % 0 % 1019,2 hPa 0,0 l/m 0,0 km/h (0 Bft) 0 min 0,0 km/h (0 Bft)
03.08.2009 22:10 22,8 C 16,8 C 0,0 UV-I 0,0 C 52 % 67 % 0 % 1019,2 hPa 0,0 l/m 0,0 km/h (0 Bft) 0 min 0,0 km/h (0 Bft)
03.08.2009 22:12 22,8 C 16,6 C 0,0 UV-I 0,0 C 52 % 68 % 0 % 1019,2 hPa 0,0 l/m 0,0 km/h (0 Bft) 0 min 0,0 km/h (0 Bft)
03.08.2009 22:14 22,7 C 16,7 C 0,0 UV-I 0,0 C 52 % 68 % 0 % 1019,2 hPa 0,0 l/m 0,0 km/h (0 Bft) 0 min 0,0 km/h (0 Bft)
03.08.2009 22:16 22,7 C 16,5 C 0,0 UV-I 0,0 C 52 % 68 % 0 % 1019,2 hPa 0,0 l/m 0,0 km/h (0 Bft) 0 min 0,0 km/h (0 Bft)
03.08.2009 22:18 22,7 C 16,5 C 0,0 UV-I 0,0 C 52 % 68 % 0 % 1019,2 hPa 0,0 l/m 0,0 km/h (0 Bft) 0 min 0,0 km/h (0 Bft)
03.08.2009 22:22 22,7 C 16,3 C 0,0 UV-I 0,0 C 52 % 69 % 0 % 1019,2 hPa 0,0 l/m 0,0 km/h (0 Bft) 0 min 0,0 km/h (0 Bft)
03.08.2009 22:24 22,6 C 16,3 C 0,0 UV-I 0,0 C 52 % 69 % 0 % 1019,2 hPa 0,0 l/m 0,0 km/h (0 Bft) 0 min 0,0 km/h (0 Bft)
03.08.2009 22:26 22,6 C 16,3 C 0,0 UV-I 0,0 C 52 % 70 % 0 % 1019,2 hPa 0,0 l/m 0,0 km/h (0 Bft) 0 min 0,0 km/h (0 Bft)
03.08.2009 22:28 22,6 C 16,1 C 0,0 UV-I 0,0 C 52 % 70 % 0 % 1019,2 hPa 0,0 l/m 0,0 km/h (0 Bft) 0 min 0,0 km/h (0 Bft)
03.08.2009 22:30 22,6 C 16,1 C 0,0 UV-I 0,0 C 53 % 71 % 0 % 1019,2 hPa 0,0 l/m 0,0 km/h (0 Bft) 0 min 0,0 km/h (0 Bft)
03.08.2009 22:32 22,6 C 16,1 C 0,0 UV-I 0,0 C 53 % 71 % 0 % 1019,2 hPa 0,0 l/m 0,0 km/h (0 Bft) 0 min 0,0 km/h (0 Bft)
03.08.2009 22:34 22,6 C 15,9 C 0,0 UV-I 0,0 C 53 % 71 % 0 % 1019,2 hPa 0,0 l/m 0,0 km/h (0 Bft) 0 min 0,0 km/h (0 Bft)
03.08.2009 22:36 22,5 C 15,9 C 0,0 UV-I 0,0 C 53 % 71 % 0 % 1019,4 hPa 0,0 l/m 0,0 km/h (0 Bft) 0 min 0,0 km/h (0 Bft)
03.08.2009 22:38 22,5 C 15,9 C 0,0 UV-I 0,0 C 53 % 71 % 0 % 1019,4 hPa 0,0 l/m 0,0 km/h (0 Bft) 0 min 0,0 km/h (0 Bft)
03.08.2009 22:40 22,5 C 15,8 C 0,0 UV-I 0,0 C 53 % 72 % 0 % 1019,4 hPa 0,0 l/m 0,0 km/h (0 Bft) 0 min 0,0 km/h (0 Bft)
03.08.2009 22:42 22,5 C 15,6 C 0,0 UV-I 0,0 C 53 % 72 % 0 % 1019,4 hPa 0,0 l/m 0,0 km/h (0 Bft) 0 min 0,0 km/h (0 Bft)
03.08.2009 22:44 22,4 C 15,6 C 0,0 UV-I 0,0 C 53 % 72 % 0 % 1019,4 hPa 0,0 l/m 0,0 km/h (0 Bft) 0 min 0,0 km/h (0 Bft)
03.08.2009 22:46 22,4 C 15,6 C 0,0 UV-I 0,0 C 53 % 73 % 0 % 1019,4 hPa 0,0 l/m 0,0 km/h (0 Bft) 0 min 0,0 km/h (0 Bft)
03.08.2009 22:48 22,4 C 15,5 C 0,0 UV-I 0,0 C 53 % 73 % 0 % 1019,4 hPa 0,0 l/m 0,0 km/h (0 Bft) 0 min 0,0 km/h (0 Bft)
03.08.2009 22:50 22,4 C 15,4 C 0,0 UV-I 0,0 C 53 % 73 % 0 % 1019,4 hPa 0,0 l/m 0,0 km/h (0 Bft) 0 min 0,0 km/h (0 Bft)
03.08.2009 22:52 22,4 C 15,5 C 0,0 UV-I 0,0 C 53 % 73 % 0 % 1019,4 hPa 0,0 l/m 0,0 km/h (0 Bft) 0 min 0,0 km/h (0 Bft)
03.08.2009 22:54 22,4 C 15,3 C 0,0 UV-I 0,0 C 53 % 74 % 0 % 1019,4 hPa 0,0 l/m 0,0 km/h (0 Bft) 0 min 0,0 km/h (0 Bft)
03.08.2009 22:56 22,4 C 15,3 C 0,0 UV-I 0,0 C 53 % 74 % 0 % 1019,4 hPa 0,0 l/m 0,0 km/h (0 Bft) 0 min 0,0 km/h (0 Bft)
03.08.2009 22:58 22,4 C 15,3 C 0,0 UV-I 0,0 C 53 % 74 % 0 % 1019,4 hPa 0,0 l/m 0,0 km/h (0 Bft) 0 min 0,0 km/h (0 Bft)
03.08.2009 23:00 22,4 C 15,1 C 0,0 UV-I 0,0 C 53 % 75 % 0 % 1019,4 hPa 0,0 l/m 0,0 km/h (0 Bft) 0 min 0,0 km/h (0 Bft)
03.08.2009 23:02 22,2 C 15,1 C 0,0 UV-I 0,0 C 54 % 75 % 0 % 1019,4 hPa 0,0 l/m 0,0 km/h (0 Bft) 0 min 0,0 km/h (0 Bft)
03.08.2009 23:04 22,3 C 15,0 C 0,0 UV-I 0,0 C 54 % 75 % 0 % 1019,4 hPa 0,0 l/m 0,0 km/h (0 Bft) 0 min 0,0 km/h (0 Bft)
03.08.2009 23:06 22,3 C 15,1 C 0,0 UV-I 0,0 C 54 % 75 % 0 % 1019,4 hPa 0,0 l/m 0,0 km/h (0 Bft) 0 min 0,0 km/h (0 Bft)
03.08.2009 23:08 22,2 C 14,9 C 0,0 UV-I 0,0 C 54 % 75 % 0 % 1019,4 hPa 0,0 l/m 0,0 km/h (0 Bft) 0 min 0,0 km/h (0 Bft)
03.08.2009 23:10 22,3 C 14,8 C 0,0 UV-I 0,0 C 54 % 75 % 0 % 1019,4 hPa 0,0 l/m 0,0 km/h (0 Bft) 0 min 0,0 km/h (0 Bft)
03.08.2009 23:12 22,2 C 14,9 C 0,0 UV-I 0,0 C 54 % 75 % 0 % 1019,4 hPa 0,0 l/m 0,0 km/h (0 Bft) 0 min 0,0 km/h (0 Bft)
03.08.2009 23:14 22,2 C 14,8 C 0,0 UV-I 0,0 C 54 % 76 % 0 % 1019,4 hPa 0,0 l/m 0,0 km/h (0 Bft) 0 min 0,0 km/h (0 Bft)
03.08.2009 23:16 22,2 C 14,7 C 0,0 UV-I 0,0 C 54 % 76 % 0 % 1019,6 hPa 0,0 l/m 0,0 km/h (0 Bft) 0 min 0,0 km/h (0 Bft)
03.08.2009 23:18 22,2 C 14,6 C 0,0 UV-I 0,0 C 54 % 76 % 0 % 1019,6 hPa 0,0 l/m 0,0 km/h (0 Bft) 0 min 0,0 km/h (0 Bft)
03.08.2009 23:20 22,2 C 14,7 C 0,0 UV-I 0,0 C 54 % 77 % 0 % 1019,6 hPa 0,0 l/m 0,0 km/h (0 Bft) 0 min 0,0 km/h (0 Bft)
03.08.2009 23:22 22,2 C 14,5 C 0,0 UV-I 0,0 C 54 % 77 % 0 % 1019,6 hPa 0,0 l/m 0,0 km/h (0 Bft) 0 min 0,0 km/h (0 Bft)
03.08.2009 23:24 22,1 C 14,5 C 0,0 UV-I 0,0 C 54 % 77 % 0 % 1019,6 hPa 0,0 l/m 0,0 km/h (0 Bft) 0 min 0,0 km/h (0 Bft)
03.08.2009 23:26 22,1 C 14,4 C 0,0 UV-I 0,0 C 54 % 77 % 0 % 1019,6 hPa 0,0 l/m 0,0 km/h (0 Bft) 0 min 0,0 km/h (0 Bft)
03.08.2009 23:28 22,1 C 14,4 C 0,0 UV-I 0,0 C 54 % 77 % 0 % 1019,6 hPa 0,0 l/m 0,0 km/h (0 Bft) 0 min 0,0 km/h (0 Bft)
03.08.2009 23:30 22,1 C 14,3 C 0,0 UV-I 0,0 C 54 % 78 % 0 % 1019,6 hPa 0,0 l/m 0,0 km/h (0 Bft) 0 min 0,0 km/h (0 Bft)
03.08.2009 23:32 22,1 C 14,3 C 0,0 UV-I 0,0 C 54 % 78 % 0 % 1019,6 hPa 0,0 l/m 0,0 km/h (0 Bft) 0 min 0,0 km/h (0 Bft)
03.08.2009 23:34 22,0 C 14,2 C 0,0 UV-I 0,0 C 54 % 78 % 0 % 1019,6 hPa 0,0 l/m 0,0 km/h (0 Bft) 0 min 0,0 km/h (0 Bft)
03.08.2009 23:36 22,0 C 14,3 C 0,0 UV-I 0,0 C 54 % 78 % 0 % 1019,9 hPa 0,0 l/m 0,0 km/h (0 Bft) 0 min 0,0 km/h (0 Bft)
03.08.2009 23:38 22,0 C 14,1 C 0,0 UV-I 0,0 C 54 % 79 % 0 % 1019,9 hPa 0,0 l/m 0,0 km/h (0 Bft) 0 min 0,0 km/h (0 Bft)
03.08.2009 23:40 22,0 C 14,1 C 0,0 UV-I 0,0 C 54 % 79 % 0 % 1019,9 hPa 0,0 l/m 0,0 km/h (0 Bft) 0 min 0,0 km/h (0 Bft)
03.08.2009 23:42 22,0 C 14,1 C 0,0 UV-I 0,0 C 54 % 79 % 0 % 1019,9 hPa 0,0 l/m 0,0 km/h (0 Bft) 0 min 0,0 km/h (0 Bft)
03.08.2009 23:44 22,0 C 14,0 C 0,0 UV-I 0,0 C 54 % 79 % 0 % 1019,9 hPa 0,0 l/m 0,0 km/h (0 Bft) 0 min 0,0 km/h (0 Bft)
03.08.2009 23:46 22,0 C 14,1 C 0,0 UV-I 0,0 C 54 % 79 % 0 % 1019,9 hPa 0,0 l/m 0,0 km/h (0 Bft) 0 min 0,0 km/h (0 Bft)
03.08.2009 23:48 22,0 C 13,9 C 0,0 UV-I 0,0 C 54 % 79 % 0 % 1019,9 hPa 0,0 l/m 0,0 km/h (0 Bft) 0 min 0,0 km/h (0 Bft)
03.08.2009 23:50 21,9 C 13,9 C 0,0 UV-I 0,0 C 54 % 79 % 0 % 1019,9 hPa 0,0 l/m 0,0 km/h (0 Bft) 0 min 0,0 km/h (0 Bft)
03.08.2009 23:52 21,9 C 13,8 C 0,0 UV-I 0,0 C 54 % 79 % 0 % 1019,9 hPa 0,0 l/m 0,0 km/h (0 Bft) 0 min 0,0 km/h (0 Bft)
03.08.2009 23:54 21,9 C 13,9 C 0,0 UV-I 0,0 C 54 % 79 % 0 % 1019,9 hPa 0,0 l/m 0,0 km/h (0 Bft) 0 min 0,0 km/h (0 Bft)
03.08.2009 23:56 21,9 C 13,8 C 0,0 UV-I 0,0 C 54 % 79 % 0 % 1019,8 hPa 0,0 l/m 0,0 km/h (0 Bft) 0 min 0,0 km/h (0 Bft)
03.08.2009 23:58 21,9 C 13,7 C 0,0 UV-I 0,0 C 54 % 80 % 0 % 1019,8 hPa 0,0 l/m 0,0 km/h (0 Bft) 0 min 0,0 km/h (0 Bft)
_ Min-Zeit 04:22 03:46 00:00 00:00 18:24 17:44 00:00 02:56 - 00:00 - 00:00
Minimum _ 21,2 C 11,7 C 0,0 UV-I 0,0 C 50 % 42 % 0 % 1016,2 hPa - 0,0 km/h (0 Bft) - 0,0 km/h (0 Bft)
_ Max-Zeit 18:09 17:28 11:12 11:38 00:00 07:54 10:02 23:36 00:00 17:40 09:54 17:42
Maximum _ 25,0 C 23,6 C 11,3 UV-I 7,5 C 61 % 94 % 100 % 1019,9 hPa 0,0 l/m 4,3 km/h
W-SW (1 Bft)
2 min 14,9 km/h
S-SO (3 Bft)
Durchschnitt _ 22,5 C 17,1 C 1,8 UV-I 1,2 C 57 % 72 % 28 % 1017,6 hPa #0,0 l/m 0,7 km/h (0 Bft) #4:06 h 1,7 km/h (1 Bft)
© 2012 W. Hausmann